SAS984 RJTT-EKCH

Flight info

Callsign SAS984
Flight time 12h 28m
Altitude 35000
Route INUBO Y808 NOLAX Y812 ADNAP R591 ADGOR 44N155E PASRO A590 POWAL DCT HEDMI R338 NATES/N0501F370 R338 MARCC DCT JUJXI DCT 70N163W 75N153W/N0492F390 DCT OMEKA DCT 81N120W 82N100W 83N080W 83N060W/M085F390 82N040W 80N020W 75N000W/N0498F390 DCT GUBNO/N0498F410 DCT TUMGU DCT TOPLA L996 ERNOV
Aircraft A359/H-SDE2E3GHIJ3J4J5LM1ORWXY/LB1D1

Departure

Time 2026-04-24 22:06
Airport Tokyo Haneda International Airport (RJTT)

Arrival

Time 2026-04-25 10:34
Airport Copenhagen Kastrup Airport (EKCH)
Time Latitude Longitude Altitude Speed Heading
2026-04-24 21:35 35.54350 139.77189 29 ft 0 kts 240°
2026-04-24 21:54 35.54351 139.77190 29 ft 1 kts 240°
2026-04-24 21:54 35.54359 139.77207 29 ft 3 kts 242°
2026-04-24 21:54 35.54368 139.77229 28 ft 3 kts 245°
2026-04-24 21:55 35.54376 139.77251 28 ft 2 kts 243°
2026-04-24 21:55 35.54382 139.77266 28 ft 3 kts 230°
2026-04-24 21:55 35.54394 139.77277 27 ft 3 kts 175°
2026-04-24 21:55 35.54412 139.77271 26 ft 3 kts 149°
2026-04-24 21:56 35.54426 139.77260 28 ft 1 kts 144°
2026-04-24 21:56 35.54430 139.77256 28 ft 0 kts 144°
2026-04-24 21:58 35.54405 139.77277 27 ft 10 kts 147°
2026-04-24 21:58 35.54357 139.77354 29 ft 12 kts 90°
2026-04-24 21:58 35.54393 139.77457 29 ft 14 kts 60°
2026-04-24 21:59 35.54442 139.77569 29 ft 16 kts 73°
2026-04-24 21:59 35.54387 139.77667 29 ft 16 kts 150°
2026-04-24 21:59 35.54278 139.77743 29 ft 20 kts 150°
2026-04-24 21:59 35.54149 139.77835 29 ft 23 kts 150°
2026-04-24 22:00 35.54005 139.77938 28 ft 24 kts 149°
2026-04-24 22:00 35.53969 139.78090 29 ft 20 kts 60°
2026-04-24 22:00 35.54037 139.78238 31 ft 19 kts 59°
2026-04-24 22:00 35.54108 139.78386 29 ft 23 kts 59°
2026-04-24 22:01 35.54189 139.78555 30 ft 22 kts 59°
2026-04-24 22:01 35.54270 139.78725 31 ft 25 kts 59°
2026-04-24 22:01 35.54360 139.78913 31 ft 27 kts 59°
2026-04-24 22:01 35.54454 139.79112 31 ft 26 kts 60°
2026-04-24 22:02 35.54541 139.79297 30 ft 25 kts 60°
2026-04-24 22:02 35.54628 139.79477 30 ft 24 kts 59°
2026-04-24 22:02 35.54710 139.79648 29 ft 20 kts 61°
2026-04-24 22:02 35.54672 139.79761 29 ft 17 kts 147°
2026-04-24 22:03 35.54560 139.79839 29 ft 21 kts 150°
2026-04-24 22:03 35.54424 139.79936 29 ft 24 kts 149°
2026-04-24 22:03 35.54264 139.80049 30 ft 29 kts 150°
2026-04-24 22:03 35.54094 139.80170 30 ft 28 kts 150°
2026-04-24 22:04 35.53952 139.80272 30 ft 6 kts 145°
2026-04-24 22:04 35.53920 139.80320 30 ft 10 kts 114°
2026-04-24 22:04 35.53939 139.80412 30 ft 14 kts 63°
2026-04-24 22:04 35.54017 139.80471 30 ft 15 kts 346°
2026-04-24 22:05 35.54061 139.80443 30 ft 0 kts 330°
2026-04-24 22:05 35.54162 139.80373 30 ft 48 kts 330°
2026-04-24 22:05 35.54643 139.80035 30 ft 110 kts 330°
2026-04-24 22:05 35.55467 139.79452 31 ft 162 kts 329°
2026-04-24 22:06 35.56450 139.78712 614 ft 162 kts 331°
2026-04-24 22:06 35.57316 139.77790 1215 ft 170 kts 316°
2026-04-24 22:06 35.58362 139.77132 1435 ft 179 kts
2026-04-24 22:06 35.59501 139.77703 1690 ft 188 kts 50°
2026-04-24 22:07 35.60010 139.79210 2024 ft 200 kts 79°
2026-04-24 22:07 35.60311 139.80972 2336 ft 221 kts 76°
2026-04-24 22:07 35.60662 139.82884 2776 ft 236 kts 78°
2026-04-24 22:07 35.60985 139.84896 3257 ft 245 kts 79°
2026-04-24 22:08 35.61286 139.86983 3755 ft 252 kts 80°
2026-04-24 22:08 35.61575 139.89129 4240 ft 257 kts 80°
2026-04-24 22:08 35.61861 139.91326 4720 ft 263 kts 79°
2026-04-24 22:08 35.62150 139.93574 5213 ft 270 kts 79°
2026-04-24 22:09 35.62440 139.95871 5723 ft 274 kts 79°
2026-04-24 22:09 35.62732 139.98198 6290 ft 277 kts 79°
2026-04-24 22:09 35.63027 140.00557 6843 ft 281 kts 79°
2026-04-24 22:09 35.63324 140.02939 7428 ft 283 kts 79°
2026-04-24 22:10 35.63621 140.05334 8012 ft 285 kts 79°
2026-04-24 22:10 35.63922 140.07754 8615 ft 287 kts 79°
2026-04-24 22:10 35.64220 140.10156 9226 ft 289 kts 79°
2026-04-24 22:10 35.64523 140.12611 9834 ft 291 kts 79°
2026-04-24 22:11 35.64830 140.15094 10292 ft 299 kts 79°
2026-04-24 22:11 35.65152 140.17687 10551 ft 315 kts 79°
2026-04-24 22:11 35.65489 140.20414 10802 ft 330 kts 79°
2026-04-24 22:11 35.65840 140.23264 11058 ft 345 kts 79°
2026-04-24 22:12 35.66205 140.26238 11323 ft 359 kts 79°
2026-04-24 22:12 35.66584 140.29334 11569 ft 372 kts 80°
2026-04-24 22:12 35.66973 140.32528 11785 ft 385 kts 80°
2026-04-24 22:12 35.67375 140.35836 12081 ft 395 kts 80°
2026-04-24 22:13 35.67865 140.39180 12479 ft 399 kts 74°
2026-04-24 22:13 35.68680 140.42450 12929 ft 402 kts 70°
2026-04-24 22:13 35.69612 140.45723 13326 ft 408 kts 68°
2026-04-24 22:13 35.70616 140.49007 13776 ft 411 kts 68°
2026-04-24 22:14 35.71660 140.52304 14206 ft 415 kts 67°
2026-04-24 22:14 35.72724 140.55628 14595 ft 419 kts 67°
2026-04-24 22:14 35.73782 140.58939 15000 ft 423 kts 66°
2026-04-24 22:14 35.74859 140.62326 15396 ft 427 kts 66°
2026-04-24 22:15 35.75946 140.65767 15803 ft 431 kts 66°
2026-04-24 22:15 35.77035 140.69229 16217 ft 435 kts 66°
2026-04-24 22:15 35.78129 140.72719 16654 ft 439 kts 66°
2026-04-24 22:15 35.79229 140.76239 17078 ft 442 kts 66°
2026-04-24 22:16 35.80338 140.79791 17483 ft 446 kts 66°
2026-04-24 22:16 35.81456 140.83377 17902 ft 450 kts 66°
2026-04-24 22:16 35.82579 140.86984 18313 ft 453 kts 66°
2026-04-24 22:16 35.83711 140.90620 18724 ft 456 kts 66°
2026-04-24 22:17 35.84853 140.94293 19018 ft 461 kts 66°
2026-04-24 22:17 35.86006 140.98009 19319 ft 466 kts 66°
2026-04-24 22:17 35.87168 141.01761 19636 ft 471 kts 67°
2026-04-24 22:17 35.88341 141.05551 19965 ft 475 kts 67°
2026-04-24 22:18 35.89521 141.09369 20269 ft 480 kts 67°
2026-04-24 22:18 35.90717 141.13244 20594 ft 485 kts 68°
2026-04-24 22:18 35.91921 141.17148 20907 ft 490 kts 68°
2026-04-24 22:18 35.93137 141.21101 21228 ft 494 kts 68°
2026-04-24 22:19 35.94361 141.25083 21555 ft 499 kts 68°
2026-04-24 22:19 35.95596 141.29108 21887 ft 504 kts 69°
2026-04-24 22:19 35.96824 141.33115 22200 ft 508 kts 69°
2026-04-24 22:19 35.98078 141.37213 22505 ft 514 kts 69°
2026-04-24 22:20 35.99348 141.41367 22796 ft 519 kts 69°
2026-04-24 22:20 36.00626 141.45552 23112 ft 523 kts 69°
2026-04-24 22:20 36.01916 141.49784 23444 ft 528 kts 69°
2026-04-24 22:20 36.03214 141.54049 23757 ft 532 kts 69°
2026-04-24 22:21 36.04521 141.58348 24032 ft 537 kts 69°
2026-04-24 22:21 36.05835 141.62678 24340 ft 540 kts 69°
2026-04-24 22:21 36.07155 141.67034 24636 ft 543 kts 69°
2026-04-24 22:21 36.08484 141.71427 24929 ft 547 kts 69°
2026-04-24 22:22 36.09818 141.75842 25221 ft 550 kts 69°
2026-04-24 22:22 36.11160 141.80290 25507 ft 553 kts 69°
2026-04-24 22:22 36.12506 141.84763 25834 ft 556 kts 69°
2026-04-24 22:22 36.13860 141.89264 26131 ft 559 kts 69°
2026-04-24 22:23 36.15217 141.93785 26417 ft 562 kts 69°
2026-04-24 22:23 36.16578 141.98327 26704 ft 565 kts 69°
2026-04-24 22:23 36.17949 142.02906 26979 ft 568 kts 69°
2026-04-24 22:23 36.19322 142.07505 27303 ft 570 kts 69°
2026-04-24 22:24 36.20696 142.12114 27605 ft 572 kts 69°
2026-04-24 22:24 36.22078 142.16753 27869 ft 575 kts 69°
2026-04-24 22:24 36.23461 142.21405 28143 ft 578 kts 69°
2026-04-24 22:24 36.24853 142.26094 28388 ft 580 kts 69°
2026-04-24 22:25 36.26246 142.30796 28626 ft 583 kts 69°
2026-04-24 22:25 36.27645 142.35526 28857 ft 586 kts 69°
2026-04-24 22:25 36.29028 142.40213 29093 ft 588 kts 69°
2026-04-24 22:25 36.30433 142.44980 29385 ft 589 kts 69°
2026-04-24 22:26 36.31842 142.49767 29466 ft 594 kts 69°
2026-04-24 22:26 36.33263 142.54600 29762 ft 595 kts 69°
2026-04-24 22:26 36.34672 142.59408 30240 ft 592 kts 69°
2026-04-24 22:26 36.35601 142.62585 30430 ft 592 kts 69°
2026-04-24 22:27 36.37011 142.67408 30597 ft 594 kts 69°
2026-04-24 22:27 36.38420 142.72233 30798 ft 596 kts 69°
2026-04-24 22:27 36.39833 142.77081 31000 ft 598 kts 69°
2026-04-24 22:27 36.41243 142.81927 31214 ft 598 kts 68°
2026-04-24 22:28 36.42658 142.86800 31418 ft 600 kts 68°
2026-04-24 22:28 36.44074 142.91683 31591 ft 602 kts 68°
2026-04-24 22:28 36.45488 142.96570 31776 ft 603 kts 68°
2026-04-24 22:28 36.46909 143.01491 31956 ft 604 kts 68°
2026-04-24 22:29 36.49744 143.11336 32341 ft 606 kts 68°
2026-04-24 22:29 36.51162 143.16271 32504 ft 608 kts 68°
2026-04-24 22:29 36.52584 143.21229 32660 ft 609 kts 68°
2026-04-24 22:30 36.54005 143.26193 32859 ft 610 kts 68°
2026-04-24 22:30 36.55424 143.31161 33048 ft 610 kts 68°
2026-04-24 22:30 36.56844 143.36141 33202 ft 612 kts 68°
2026-04-24 22:30 36.58265 143.41131 33343 ft 613 kts 68°
2026-04-24 22:31 36.59688 143.46139 33494 ft 614 kts 68°
2026-04-24 22:31 36.61110 143.51155 33669 ft 615 kts 67°
2026-04-24 22:31 36.62535 143.56186 33827 ft 616 kts 67°
2026-04-24 22:31 36.63956 143.61215 33989 ft 617 kts 67°
2026-04-24 22:32 36.65378 143.66259 34111 ft 618 kts 67°
2026-04-24 22:32 36.66801 143.71311 34247 ft 619 kts 67°
2026-04-24 22:32 36.68222 143.76372 34408 ft 619 kts 67°
2026-04-24 22:32 36.69621 143.81365 34633 ft 617 kts 67°
2026-04-24 22:33 36.71031 143.86410 34851 ft 615 kts 67°
2026-04-24 22:33 36.72434 143.91432 35040 ft 614 kts 67°
2026-04-24 22:33 36.73838 143.96466 35192 ft 613 kts 67°
2026-04-24 22:33 36.75237 144.01493 35263 ft 615 kts 68°
2026-04-24 22:34 36.78051 144.11616 35264 ft 620 kts 68°
2026-04-24 22:34 36.80863 144.21783 35265 ft 620 kts 68°
2026-04-24 22:35 36.83664 144.31959 35268 ft 619 kts 68°
2026-04-24 22:35 36.86457 144.42137 35268 ft 619 kts 68°
2026-04-24 22:36 36.89242 144.52326 35272 ft 619 kts 68°
2026-04-24 22:36 36.91994 144.62430 35266 ft 619 kts 68°
2026-04-24 22:37 36.94761 144.72630 35266 ft 619 kts 68°
2026-04-24 22:37 36.97518 144.82835 35261 ft 618 kts 68°
2026-04-24 22:38 37.00261 144.93026 35260 ft 618 kts 68°
2026-04-24 22:38 37.02998 145.03231 35275 ft 618 kts 68°
2026-04-24 22:39 37.05703 145.13362 35268 ft 617 kts 68°
2026-04-24 22:39 37.08413 145.23548 35264 ft 617 kts 69°
2026-04-24 22:40 37.11119 145.33759 35260 ft 618 kts 68°
2026-04-24 22:40 37.13824 145.44005 35256 ft 620 kts 69°
2026-04-24 22:41 37.16522 145.54267 35257 ft 620 kts 69°
2026-04-24 22:41 37.19601 145.64281 35252 ft 609 kts 54°
2026-04-24 22:42 37.21941 145.68639 35243 ft 595 kts 42°
2026-04-24 22:42 37.24666 145.72497 35289 ft 589 kts 37°
2026-04-24 22:42 37.30550 145.79552 35253 ft 581 kts 32°
2026-04-24 22:43 37.36564 145.86295 35252 ft 579 kts 32°
2026-04-24 22:43 37.42543 145.93102 35252 ft 580 kts 33°
2026-04-24 22:44 37.48476 146.00000 35249 ft 581 kts 33°
2026-04-24 22:44 37.54395 146.06941 35256 ft 581 kts 34°
2026-04-24 22:45 37.60253 146.13831 35247 ft 578 kts 34°
2026-04-24 22:45 37.66124 146.20741 35246 ft 577 kts 34°
2026-04-24 22:46 37.71990 146.27652 35247 ft 577 kts 34°
2026-04-24 22:46 37.77851 146.34573 35245 ft 577 kts 34°
2026-04-24 22:47 37.83705 146.41504 35243 ft 576 kts 34°
2026-04-24 22:47 37.89552 146.48443 35276 ft 576 kts 35°
2026-04-24 22:48 37.95391 146.55390 35243 ft 575 kts 35°
2026-04-24 22:48 38.01210 146.62328 35241 ft 575 kts 35°
2026-04-24 22:49 38.07037 146.69290 35238 ft 575 kts 35°
2026-04-24 22:49 38.12815 146.76210 35235 ft 575 kts 35°
2026-04-24 22:50 38.18623 146.83182 35235 ft 575 kts 35°
2026-04-24 22:50 38.24430 146.90170 35236 ft 574 kts 35°
2026-04-24 22:51 38.30227 146.97162 35236 ft 574 kts 35°
2026-04-24 22:51 38.36021 147.04164 35235 ft 574 kts 35°
2026-04-24 22:52 38.41811 147.11180 35252 ft 574 kts 35°
2026-04-24 22:52 38.47596 147.18206 35228 ft 573 kts 35°
2026-04-24 22:53 38.53366 147.25229 35261 ft 574 kts 36°
2026-04-24 22:53 38.59130 147.32263 35224 ft 572 kts 36°
2026-04-24 22:54 38.64875 147.39290 35230 ft 571 kts 36°
2026-04-24 22:54 38.70615 147.46324 35230 ft 572 kts 36°
2026-04-24 22:55 38.76322 147.53335 35221 ft 572 kts 36°
2026-04-24 22:55 38.82061 147.60404 35219 ft 572 kts 36°
2026-04-24 22:56 38.87800 147.67488 35230 ft 571 kts 36°
2026-04-24 22:56 38.93515 147.74563 35222 ft 570 kts 36°
2026-04-24 22:57 38.99221 147.81640 35222 ft 570 kts 36°
2026-04-24 22:57 39.04925 147.88729 35222 ft 570 kts 36°
2026-04-24 22:58 39.10624 147.95832 35224 ft 570 kts 36°
2026-04-24 22:58 39.16327 148.02955 35242 ft 570 kts 36°
2026-04-24 22:59 39.21973 148.10026 35217 ft 569 kts 36°
2026-04-24 23:00 39.30487 148.20719 35234 ft 569 kts 36°
2026-04-24 23:00 39.36153 148.27854 35214 ft 569 kts 36°
2026-04-24 23:01 39.41813 148.35000 35212 ft 569 kts 36°
2026-04-24 23:01 39.47474 148.42166 35263 ft 569 kts 36°
2026-04-24 23:02 39.53079 148.49280 35217 ft 567 kts 36°
2026-04-24 23:02 39.58704 148.56434 35208 ft 567 kts 36°
2026-04-24 23:03 39.64328 148.63600 35205 ft 567 kts 36°
2026-04-24 23:03 39.69943 148.70776 35200 ft 567 kts 36°
2026-04-24 23:04 39.75559 148.77969 35215 ft 567 kts 36°
2026-04-24 23:04 39.81132 148.85125 35207 ft 566 kts 37°
2026-04-24 23:05 39.86726 148.92328 35204 ft 565 kts 37°
2026-04-24 23:05 39.92311 148.99534 35198 ft 565 kts 37°
2026-04-24 23:06 39.97896 149.06757 35200 ft 565 kts 37°
2026-04-24 23:06 40.03477 149.13992 35198 ft 565 kts 37°
2026-04-24 23:07 40.09053 149.21240 35198 ft 566 kts 37°
2026-04-24 23:07 40.14626 149.28502 35189 ft 564 kts 37°
2026-04-24 23:08 40.20175 149.35753 35197 ft 563 kts 37°
2026-04-24 23:08 40.25674 149.42952 35189 ft 563 kts 37°
2026-04-24 23:09 40.31243 149.50260 35199 ft 563 kts 37°
2026-04-24 23:09 40.36739 149.57492 35199 ft 563 kts 37°
2026-04-24 23:10 40.42271 149.64788 35206 ft 564 kts 37°
2026-04-24 23:10 40.47736 149.72154 35188 ft 563 kts 39°
2026-04-24 23:11 40.53128 149.79613 35190 ft 563 kts 39°
2026-04-24 23:11 40.58517 149.87077 35187 ft 563 kts 39°
2026-04-24 23:12 40.63921 149.94547 35193 ft 563 kts 39°
2026-04-24 23:12 40.69323 150.02017 35192 ft 563 kts 39°
2026-04-24 23:13 40.74724 150.09505 35192 ft 563 kts 39°
2026-04-24 23:13 40.80065 150.16933 35193 ft 561 kts 39°
2026-04-24 23:14 40.85437 150.24421 35192 ft 562 kts 39°
2026-04-24 23:14 40.90806 150.31922 35193 ft 562 kts 39°
2026-04-24 23:15 40.96179 150.39448 35194 ft 562 kts 39°
2026-04-24 23:15 41.01538 150.46976 35213 ft 562 kts 39°
2026-04-24 23:16 41.06893 150.54517 35193 ft 561 kts 39°
2026-04-24 23:16 41.12219 150.62040 35188 ft 559 kts 39°
2026-04-24 23:17 41.17541 150.69570 35207 ft 559 kts 39°
2026-04-24 23:17 41.22820 150.77058 35184 ft 559 kts 39°
2026-04-24 23:18 41.28133 150.84614 35184 ft 559 kts 39°
2026-04-24 23:18 41.33436 150.92177 35193 ft 559 kts 40°
2026-04-24 23:19 41.37882 150.98532 35185 ft 560 kts 40°
2026-04-24 23:19 41.43184 151.06129 35185 ft 560 kts 40°
2026-04-24 23:20 41.48452 151.13697 35188 ft 560 kts 40°
2026-04-24 23:20 41.53743 151.21318 35178 ft 560 kts 40°
2026-04-24 23:21 41.59037 151.28963 35178 ft 560 kts 40°
2026-04-24 23:21 41.64328 151.36622 35182 ft 560 kts 40°
2026-04-24 23:22 41.69579 151.44243 35179 ft 560 kts 40°
2026-04-24 23:22 41.74808 151.51857 35176 ft 558 kts 40°
2026-04-24 23:23 41.80057 151.59515 35180 ft 558 kts 40°
2026-04-24 23:23 41.85302 151.67187 35175 ft 558 kts 40°
2026-04-24 23:24 41.90536 151.74863 35171 ft 558 kts 40°
2026-04-24 23:24 41.95770 151.82559 35172 ft 558 kts 41°
2026-04-24 23:25 42.00987 151.90252 35173 ft 556 kts 41°
2026-04-24 23:25 42.06192 151.97950 35174 ft 554 kts 41°
2026-04-24 23:26 42.11376 152.05632 35168 ft 554 kts 41°
2026-04-24 23:26 42.16525 152.13281 35168 ft 554 kts 41°
2026-04-24 23:27 42.21703 152.20996 35169 ft 554 kts 41°
2026-04-24 23:27 42.26874 152.28720 35163 ft 555 kts 41°
2026-04-24 23:28 42.32044 152.36462 35169 ft 555 kts 41°
2026-04-24 23:28 42.37198 152.44206 35166 ft 553 kts 41°
2026-04-24 23:29 42.42337 152.51945 35162 ft 553 kts 42°
2026-04-24 23:29 42.47473 152.59699 35157 ft 553 kts 42°
2026-04-24 23:30 42.52601 152.67461 35167 ft 553 kts 42°
2026-04-24 23:30 42.57728 152.75243 35158 ft 552 kts 42°
2026-04-24 23:31 42.62838 152.83019 35175 ft 552 kts 42°
2026-04-24 23:31 42.67903 152.90751 35150 ft 550 kts 42°
2026-04-24 23:32 42.72974 152.98512 35155 ft 548 kts 42°
2026-04-24 23:32 42.78039 153.06280 35145 ft 548 kts 43°
2026-04-24 23:33 42.83095 153.14057 35144 ft 548 kts 43°
2026-04-24 23:33 42.88146 153.21846 35141 ft 549 kts 43°
2026-04-24 23:34 42.93212 153.29681 35138 ft 549 kts 43°
2026-04-24 23:34 42.98255 153.37502 35141 ft 547 kts 43°
2026-04-24 23:35 43.03240 153.45254 35140 ft 546 kts 43°
2026-04-24 23:35 43.08256 153.53073 35131 ft 546 kts 43°
2026-04-24 23:36 43.13260 153.60896 35130 ft 547 kts 43°
2026-04-24 23:36 43.18269 153.68746 35134 ft 547 kts 43°
2026-04-24 23:37 43.23275 153.76614 35129 ft 548 kts 43°
2026-04-24 23:37 43.30772 153.88439 35122 ft 546 kts 43°
2026-04-24 23:38 43.35753 153.96322 35119 ft 546 kts 44°
2026-04-24 23:38 43.40731 154.04220 35118 ft 546 kts 44°
2026-04-24 23:39 43.45665 154.12072 35116 ft 546 kts 44°
2026-04-24 23:39 43.50634 154.19999 35116 ft 546 kts 44°
2026-04-24 23:40 43.55599 154.27944 35114 ft 546 kts 44°
2026-04-24 23:40 43.60556 154.35896 35129 ft 546 kts 44°
2026-04-24 23:41 43.65493 154.43840 35107 ft 544 kts 44°
2026-04-24 23:41 43.70310 154.51610 35099 ft 544 kts 44°
2026-04-24 23:42 43.75264 154.59623 35102 ft 544 kts 44°
2026-04-24 23:42 43.80178 154.67593 35103 ft 544 kts 44°
2026-04-24 23:43 43.85096 154.75590 35091 ft 545 kts 45°
2026-04-24 23:43 43.90008 154.83603 35088 ft 545 kts 45°
2026-04-24 23:44 43.94918 154.91635 35104 ft 545 kts 45°
2026-04-24 23:44 43.99888 154.99548 35086 ft 540 kts 39°
2026-04-24 23:45 44.05439 155.06516 35080 ft 537 kts 36°
2026-04-24 23:45 44.11096 155.13293 35076 ft 537 kts 35°
2026-04-24 23:46 44.16735 155.20012 35073 ft 537 kts 35°
2026-04-24 23:46 44.22399 155.26799 35091 ft 538 kts 35°
2026-04-24 23:47 44.28059 155.33618 35075 ft 536 kts 36°
2026-04-24 23:47 44.33687 155.40421 35072 ft 535 kts 36°
2026-04-24 23:48 44.39329 155.47256 35061 ft 536 kts 36°
2026-04-24 23:48 44.44958 155.54094 35053 ft 536 kts 36°
2026-04-24 23:49 44.50590 155.60955 35055 ft 536 kts 36°
2026-04-24 23:49 44.56229 155.67840 35046 ft 538 kts 36°
2026-04-24 23:50 44.61834 155.74704 35048 ft 538 kts 36°
2026-04-24 23:50 44.67467 155.81622 35043 ft 538 kts 36°
2026-04-24 23:51 44.73108 155.88567 35037 ft 539 kts 36°
2026-04-24 23:51 44.78751 155.95532 35034 ft 540 kts 36°
2026-04-24 23:52 44.84382 156.02505 35035 ft 537 kts 37°
2026-04-24 23:52 44.89990 156.09467 35039 ft 536 kts 37°
2026-04-24 23:53 44.95589 156.16433 35023 ft 537 kts 37°
2026-04-24 23:53 45.01195 156.23427 35023 ft 538 kts 37°
2026-04-24 23:54 45.06759 156.30390 35018 ft 538 kts 37°
2026-04-24 23:54 45.12351 156.37407 35017 ft 537 kts 37°
2026-04-24 23:55 45.17929 156.44426 35018 ft 536 kts 37°
2026-04-24 23:55 45.23508 156.51464 35018 ft 536 kts 37°
2026-04-24 23:56 45.29079 156.58511 35012 ft 536 kts 37°
2026-04-24 23:56 45.34645 156.65572 35004 ft 536 kts 37°
2026-04-24 23:57 45.40209 156.72650 35012 ft 535 kts 37°
2026-04-24 23:57 45.45743 156.79710 35000 ft 534 kts 37°
2026-04-24 23:58 45.51274 156.86783 34989 ft 534 kts 38°
2026-04-24 23:58 45.56767 156.93826 35004 ft 535 kts 38°
2026-04-24 23:59 45.62327 157.00977 34990 ft 535 kts 38°
2026-04-24 23:59 45.67854 157.08106 34984 ft 534 kts 38°
2026-04-25 00:00 45.73327 157.15184 34981 ft 534 kts 38°
2026-04-25 00:00 45.78833 157.22324 34979 ft 534 kts 38°
2026-04-25 00:01 45.84341 157.29487 34969 ft 534 kts 38°
2026-04-25 00:01 45.89773 157.36571 34970 ft 534 kts 38°
2026-04-25 00:02 45.95285 157.43779 34979 ft 534 kts 38°
2026-04-25 00:02 46.00769 157.50971 34957 ft 533 kts 38°
2026-04-25 00:03 46.06248 157.58177 34949 ft 533 kts 38°
2026-04-25 00:03 46.11711 157.65380 34950 ft 533 kts 39°
2026-04-25 00:04 46.17146 157.72566 34941 ft 534 kts 39°
2026-04-25 00:04 46.22618 157.79824 34940 ft 534 kts 39°
2026-04-25 00:05 46.28079 157.87088 34930 ft 533 kts 39°
2026-04-25 00:05 46.33529 157.94357 34928 ft 533 kts 39°
2026-04-25 00:06 46.38972 158.01637 34922 ft 533 kts 39°
2026-04-25 00:06 46.44407 158.08927 34922 ft 533 kts 39°
2026-04-25 00:07 46.49845 158.16241 34922 ft 533 kts 39°
2026-04-25 00:07 46.55291 158.23588 34921 ft 534 kts 39°
2026-04-25 00:08 46.60713 158.30925 34909 ft 532 kts 39°
2026-04-25 00:08 46.66118 158.38260 34903 ft 531 kts 39°
2026-04-25 00:09 46.71520 158.45608 34896 ft 532 kts 40°
2026-04-25 00:09 46.76021 158.51747 34894 ft 533 kts 40°
2026-04-25 00:10 46.81431 158.59148 34889 ft 533 kts 40°
2026-04-25 00:10 46.86830 158.66555 34882 ft 532 kts 40°
2026-04-25 00:11 46.92214 158.73962 34883 ft 531 kts 40°
2026-04-25 00:11 46.97592 158.81384 34870 ft 532 kts 40°
2026-04-25 00:12 47.02971 158.88827 34865 ft 532 kts 40°
2026-04-25 00:12 47.08348 158.96289 34865 ft 532 kts 40°
2026-04-25 00:13 47.13719 159.03765 34864 ft 532 kts 40°
2026-04-25 00:13 47.19048 159.11205 34858 ft 531 kts 40°
2026-04-25 00:14 47.24392 159.18688 34856 ft 530 kts 40°
2026-04-25 00:14 47.29730 159.26183 34851 ft 530 kts 40°
2026-04-25 00:15 47.35067 159.33699 34842 ft 530 kts 40°
2026-04-25 00:15 47.40395 159.41224 34845 ft 530 kts 41°
2026-04-25 00:16 47.45720 159.48767 34834 ft 530 kts 41°
2026-04-25 00:16 47.51043 159.56330 34830 ft 530 kts 41°
2026-04-25 00:17 47.56367 159.63916 34829 ft 531 kts 41°
2026-04-25 00:17 47.61685 159.71519 34818 ft 531 kts 41°
2026-04-25 00:18 47.66965 159.79088 34815 ft 531 kts 41°
2026-04-25 00:18 47.72282 159.86732 34809 ft 532 kts 41°
2026-04-25 00:19 47.77603 159.94403 34803 ft 532 kts 41°
2026-04-25 00:19 47.82898 160.02065 34801 ft 530 kts 41°
2026-04-25 00:20 47.88182 160.09732 34790 ft 530 kts 41°
2026-04-25 00:20 47.93457 160.17407 34785 ft 530 kts 41°
2026-04-25 00:21 47.98746 160.25125 34782 ft 532 kts 42°
2026-04-25 00:21 48.04000 160.32818 34799 ft 532 kts 42°
2026-04-25 00:22 48.09235 160.40506 34761 ft 530 kts 42°
2026-04-25 00:22 48.14483 160.48236 34772 ft 530 kts 42°
2026-04-25 00:23 48.19741 160.56004 34764 ft 531 kts 42°
2026-04-25 00:23 48.24990 160.63783 34746 ft 531 kts 42°
2026-04-25 00:24 48.29773 160.72238 34741 ft 533 kts 52°
2026-04-25 00:24 48.34066 160.81327 34736 ft 535 kts 53°
2026-04-25 00:25 48.38290 160.90554 34737 ft 534 kts 54°
2026-04-25 00:25 48.42490 160.99772 34736 ft 533 kts 54°
2026-04-25 00:26 48.46689 161.08982 34737 ft 533 kts 54°
2026-04-25 00:26 48.50868 161.18157 34727 ft 534 kts 54°
2026-04-25 00:27 48.55068 161.27409 34728 ft 535 kts 54°
2026-04-25 00:27 48.59265 161.36689 34727 ft 535 kts 54°
2026-04-25 00:28 48.63452 161.45980 34721 ft 535 kts 54°
2026-04-25 00:28 48.67636 161.55292 34719 ft 536 kts 54°
2026-04-25 00:29 48.71794 161.64583 34734 ft 536 kts 54°
2026-04-25 00:29 48.75961 161.73924 34717 ft 535 kts 54°
2026-04-25 00:30 48.80119 161.83278 34712 ft 534 kts 55°
2026-04-25 00:30 48.84270 161.92650 34711 ft 536 kts 55°
2026-04-25 00:31 48.88424 162.02060 34709 ft 536 kts 55°
2026-04-25 00:31 48.92564 162.11474 34705 ft 536 kts 55°
2026-04-25 00:32 48.96703 162.20916 34700 ft 536 kts 55°
2026-04-25 00:32 49.00839 162.30382 34699 ft 538 kts 55°
2026-04-25 00:33 49.04975 162.39887 34698 ft 538 kts 55°
2026-04-25 00:33 49.09099 162.49396 34700 ft 537 kts 55°
2026-04-25 00:34 49.13202 162.58890 34698 ft 536 kts 56°
2026-04-25 00:34 49.17301 162.68407 34696 ft 536 kts 56°
2026-04-25 00:35 49.21390 162.77937 34695 ft 536 kts 56°
2026-04-25 00:35 49.25475 162.87493 34685 ft 536 kts 56°
2026-04-25 00:36 49.29554 162.97063 34683 ft 537 kts 56°
2026-04-25 00:36 49.33628 163.06661 34684 ft 537 kts 56°
2026-04-25 00:37 49.37691 163.16269 34680 ft 537 kts 56°
2026-04-25 00:37 49.41753 163.25908 34675 ft 537 kts 56°
2026-04-25 00:38 49.45813 163.35571 34678 ft 538 kts 56°
2026-04-25 00:38 49.49855 163.45235 34679 ft 537 kts 56°
2026-04-25 00:39 49.53892 163.54921 34673 ft 537 kts 56°
2026-04-25 00:39 49.57890 163.64546 34676 ft 537 kts 57°
2026-04-25 00:40 49.61921 163.74285 34673 ft 539 kts 57°
2026-04-25 00:40 49.65944 163.84042 34671 ft 539 kts 57°
2026-04-25 00:41 49.69966 163.93833 34675 ft 539 kts 57°
2026-04-25 00:41 49.73975 164.03628 34666 ft 539 kts 57°
2026-04-25 00:42 49.77969 164.13421 34668 ft 542 kts 57°
2026-04-25 00:42 49.81976 164.23286 34669 ft 540 kts 57°
2026-04-25 00:43 49.85960 164.33133 34672 ft 539 kts 57°
2026-04-25 00:43 49.89931 164.42981 34671 ft 539 kts 57°
2026-04-25 00:44 49.93882 164.52814 34672 ft 541 kts 57°
2026-04-25 00:44 49.97853 164.62737 34672 ft 541 kts 58°
2026-04-25 00:45 50.01816 164.72678 34672 ft 541 kts 58°
2026-04-25 00:45 50.05770 164.82634 34667 ft 542 kts 58°
2026-04-25 00:46 50.09734 164.92652 34677 ft 543 kts 58°
2026-04-25 00:47 50.15679 165.07697 34677 ft 543 kts 56°
2026-04-25 00:47 50.20584 165.16416 34666 ft 537 kts 41°
2026-04-25 00:48 50.26167 165.24196 34673 ft 539 kts 39°
2026-04-25 00:48 50.31869 165.31858 34672 ft 540 kts 39°
2026-04-25 00:49 50.37559 165.39528 34672 ft 540 kts 39°
2026-04-25 00:49 50.43228 165.47238 34682 ft 540 kts 39°
2026-04-25 00:50 50.48882 165.54975 34672 ft 539 kts 39°
2026-04-25 00:50 50.54527 165.62728 34674 ft 539 kts 39°
2026-04-25 00:51 50.60173 165.70507 34672 ft 539 kts 39°
2026-04-25 00:51 50.65771 165.78244 34671 ft 539 kts 39°
2026-04-25 00:52 50.71399 165.86048 34668 ft 539 kts 39°
2026-04-25 00:52 50.77044 165.93901 34671 ft 541 kts 39°
2026-04-25 00:53 50.82706 166.01804 34673 ft 542 kts 40°
2026-04-25 00:53 50.88358 166.09721 34674 ft 542 kts 40°
2026-04-25 00:54 50.93998 166.17647 34674 ft 542 kts 40°
2026-04-25 00:54 50.99636 166.25597 34676 ft 542 kts 40°
2026-04-25 00:55 51.05219 166.33496 34678 ft 539 kts 40°
2026-04-25 00:55 51.10803 166.41424 34677 ft 538 kts 40°
2026-04-25 00:56 51.16382 166.49371 34683 ft 538 kts 40°
2026-04-25 00:56 51.21956 166.57337 34666 ft 538 kts 40°
2026-04-25 00:57 51.27541 166.65347 34685 ft 541 kts 40°
2026-04-25 00:57 51.33126 166.73383 34688 ft 539 kts 40°
2026-04-25 00:58 51.38688 166.81417 34691 ft 538 kts 40°
2026-04-25 00:58 51.44234 166.89452 34692 ft 537 kts 40°
2026-04-25 00:59 51.49776 166.97508 34694 ft 539 kts 40°
2026-04-25 00:59 51.55320 167.05594 34698 ft 542 kts 41°
2026-04-25 01:00 51.60891 167.13751 34705 ft 541 kts 41°
2026-04-25 01:00 51.66448 167.21916 34708 ft 539 kts 41°
2026-04-25 01:01 51.71080 167.28742 34712 ft 539 kts 41°
2026-04-25 01:01 51.76577 167.36868 34711 ft 540 kts 41°
2026-04-25 01:02 51.82068 167.45014 34718 ft 540 kts 41°
2026-04-25 01:02 51.87601 167.53250 34722 ft 540 kts 41°
2026-04-25 01:03 51.93104 167.61472 34722 ft 537 kts 41°
2026-04-25 01:03 51.98591 167.69698 34713 ft 537 kts 41°
2026-04-25 01:04 52.04081 167.77955 34727 ft 539 kts 41°
2026-04-25 01:04 52.09570 167.86241 34727 ft 539 kts 41°
2026-04-25 01:05 52.15058 167.94557 34749 ft 539 kts 41°
2026-04-25 01:05 52.20530 168.02875 34727 ft 536 kts 41°
2026-04-25 01:06 52.25967 168.11172 34732 ft 536 kts 41°
2026-04-25 01:06 52.31396 168.19482 34738 ft 538 kts 42°
2026-04-25 01:07 52.36852 168.27866 34735 ft 538 kts 42°
2026-04-25 01:07 52.42299 168.36266 34734 ft 538 kts 42°
2026-04-25 01:08 52.47731 168.44672 34733 ft 536 kts 42°
2026-04-25 01:08 52.53139 168.53072 34744 ft 535 kts 42°
2026-04-25 01:09 52.58545 168.61496 34741 ft 536 kts 42°
2026-04-25 01:09 52.63951 168.69953 34743 ft 536 kts 42°
2026-04-25 01:10 52.69352 168.78431 34741 ft 536 kts 42°
2026-04-25 01:10 52.74745 168.86927 34750 ft 535 kts 43°
2026-04-25 01:11 52.80123 168.95430 34747 ft 535 kts 43°
2026-04-25 01:11 52.85502 169.03966 34752 ft 536 kts 43°
2026-04-25 01:12 52.90876 169.12524 34752 ft 535 kts 43°
2026-04-25 01:12 52.96235 169.21091 34755 ft 535 kts 43°
2026-04-25 01:13 53.01556 169.29626 34747 ft 535 kts 43°
2026-04-25 01:13 53.06912 169.38247 34757 ft 535 kts 43°
2026-04-25 01:14 53.12250 169.46874 34756 ft 535 kts 43°
2026-04-25 01:14 53.17583 169.55524 34760 ft 535 kts 43°
2026-04-25 01:15 53.22914 169.64203 34762 ft 535 kts 43°
2026-04-25 01:15 53.28488 169.72406 34755 ft 534 kts 37°
2026-04-25 01:16 53.34325 169.80091 34770 ft 534 kts 36°
2026-04-25 01:16 53.40193 169.87709 34769 ft 533 kts 36°
2026-04-25 01:17 53.46060 169.95350 34768 ft 533 kts 36°
2026-04-25 01:17 53.51911 170.03014 34769 ft 533 kts 37°
2026-04-25 01:18 53.57716 170.10656 34769 ft 533 kts 37°
2026-04-25 01:18 53.63553 170.18368 34769 ft 533 kts 37°
2026-04-25 01:19 53.69389 170.26106 34771 ft 533 kts 37°
2026-04-25 01:19 53.75216 170.33860 34771 ft 533 kts 37°
2026-04-25 01:20 53.81037 170.41635 34771 ft 533 kts 37°
2026-04-25 01:20 53.86858 170.49436 34772 ft 533 kts 37°
2026-04-25 01:21 53.92668 170.57253 34778 ft 533 kts 37°
2026-04-25 01:21 53.98470 170.65086 34766 ft 533 kts 37°
2026-04-25 01:22 54.04241 170.72908 34776 ft 533 kts 37°
2026-04-25 01:22 54.10033 170.80786 34773 ft 533 kts 37°
2026-04-25 01:23 54.15820 170.88687 34790 ft 533 kts 37°
2026-04-25 01:23 54.21561 170.96552 34764 ft 532 kts 37°
2026-04-25 01:24 54.27323 171.04477 34775 ft 532 kts 38°
2026-04-25 01:24 54.33080 171.12424 34783 ft 532 kts 38°
2026-04-25 01:25 54.38836 171.20399 34779 ft 532 kts 38°
2026-04-25 01:25 54.44595 171.28408 34801 ft 532 kts 38°
2026-04-25 01:26 54.50332 171.36415 34777 ft 530 kts 38°
2026-04-25 01:26 54.56065 171.44447 34788 ft 531 kts 38°
2026-04-25 01:27 54.61792 171.52501 34784 ft 531 kts 38°
2026-04-25 01:27 54.67516 171.60581 34797 ft 532 kts 38°
2026-04-25 01:28 54.76054 171.72690 34797 ft 531 kts 38°
2026-04-25 01:28 54.81756 171.80816 34797 ft 530 kts 38°
2026-04-25 01:29 54.87448 171.88958 34794 ft 530 kts 38°
2026-04-25 01:29 54.93136 171.97124 34804 ft 531 kts 38°
2026-04-25 01:30 54.98713 172.05549 34808 ft 531 kts 41°
2026-04-25 01:30 55.04147 172.14296 34810 ft 530 kts 42°
2026-04-25 01:31 55.09566 172.23025 34809 ft 529 kts 42°
2026-04-25 01:31 55.14965 172.31658 34804 ft 529 kts 41°
2026-04-25 01:32 55.20404 172.40349 34807 ft 530 kts 41°
2026-04-25 01:32 55.25847 172.49075 34806 ft 530 kts 41°
2026-04-25 01:33 55.31281 172.57826 34815 ft 530 kts 42°
2026-04-25 01:33 55.36697 172.66584 34810 ft 528 kts 42°
2026-04-25 01:34 55.42089 172.75337 34808 ft 528 kts 42°
2026-04-25 01:34 55.47491 172.84139 34811 ft 529 kts 42°
2026-04-25 01:35 55.52891 172.92975 34817 ft 529 kts 42°
2026-04-25 01:35 55.58280 173.01825 34816 ft 529 kts 42°
2026-04-25 01:36 55.63628 173.10644 34809 ft 528 kts 43°
2026-04-25 01:36 55.68989 173.19518 34809 ft 527 kts 43°
2026-04-25 01:37 55.74336 173.28405 34806 ft 527 kts 43°
2026-04-25 01:37 55.79686 173.37332 34814 ft 528 kts 43°
2026-04-25 01:38 55.85028 173.46280 34814 ft 528 kts 43°
2026-04-25 01:38 55.90374 173.55271 34813 ft 527 kts 43°
2026-04-25 01:39 55.95686 173.64240 34810 ft 525 kts 43°
2026-04-25 01:39 56.00988 173.73228 34812 ft 525 kts 43°
2026-04-25 01:40 56.06282 173.82238 34812 ft 526 kts 43°
2026-04-25 01:40 56.11584 173.91298 34816 ft 526 kts 43°
2026-04-25 01:41 56.16872 174.00370 34823 ft 526 kts 43°
2026-04-25 01:41 56.22107 174.09388 34813 ft 524 kts 44°
2026-04-25 01:42 56.27336 174.18431 34813 ft 523 kts 44°
2026-04-25 01:42 56.32575 174.27527 34804 ft 523 kts 44°
2026-04-25 01:43 56.37813 174.36659 34817 ft 524 kts 44°
2026-04-25 01:43 56.43054 174.45834 34814 ft 524 kts 44°
2026-04-25 01:44 56.48287 174.55029 34812 ft 524 kts 44°
2026-04-25 01:44 56.53474 174.64182 34817 ft 524 kts 44°
2026-04-25 01:45 56.58691 174.73426 34816 ft 524 kts 44°
2026-04-25 01:45 56.63907 174.82705 34814 ft 524 kts 44°
2026-04-25 01:46 56.69111 174.92002 34813 ft 524 kts 44°
2026-04-25 01:46 56.74315 175.01335 34819 ft 524 kts 44°
2026-04-25 01:47 56.79488 175.10652 34807 ft 522 kts 45°
2026-04-25 01:47 56.84643 175.19974 34806 ft 521 kts 45°
2026-04-25 01:48 56.89786 175.29313 34807 ft 521 kts 45°
2026-04-25 01:48 56.94925 175.38683 34803 ft 522 kts 45°
2026-04-25 01:49 57.00033 175.48036 34803 ft 522 kts 45°
2026-04-25 01:49 57.05166 175.57469 34805 ft 521 kts 45°
2026-04-25 01:50 57.10268 175.66888 34799 ft 519 kts 45°
2026-04-25 01:50 57.15353 175.76315 34801 ft 519 kts 45°
2026-04-25 01:51 57.20426 175.85760 34781 ft 519 kts 46°
2026-04-25 01:51 57.25507 175.95255 34794 ft 520 kts 46°
2026-04-25 01:52 57.29720 176.03161 34796 ft 520 kts 46°
2026-04-25 01:52 57.34789 176.12706 34796 ft 519 kts 46°
2026-04-25 01:53 57.39830 176.22240 34793 ft 517 kts 46°
2026-04-25 01:53 57.44859 176.31793 34794 ft 517 kts 46°
2026-04-25 01:54 57.49881 176.41372 34775 ft 517 kts 46°
2026-04-25 01:54 57.54938 176.50934 34781 ft 518 kts 46°
2026-04-25 01:55 57.60015 176.60441 34785 ft 518 kts 46°
2026-04-25 01:55 57.65077 176.69968 34789 ft 516 kts 46°
2026-04-25 01:56 57.70075 176.79441 34784 ft 515 kts 46°
2026-04-25 01:56 57.75096 176.89010 34782 ft 515 kts 46°
2026-04-25 01:57 57.82620 177.03422 34779 ft 515 kts 46°
2026-04-25 01:58 57.87626 177.13063 34791 ft 515 kts 47°
2026-04-25 01:58 57.92623 177.22725 34780 ft 514 kts 47°
2026-04-25 01:59 57.97600 177.32389 34784 ft 513 kts 47°
2026-04-25 01:59 58.02562 177.42067 34780 ft 513 kts 47°
2026-04-25 02:00 58.07514 177.51766 34776 ft 513 kts 47°
2026-04-25 02:00 58.12463 177.61500 34776 ft 514 kts 47°
2026-04-25 02:01 58.17374 177.71202 34779 ft 514 kts 47°
2026-04-25 02:01 58.22311 177.80995 34776 ft 513 kts 47°
2026-04-25 02:02 58.27196 177.90728 34776 ft 512 kts 48°
2026-04-25 02:02 58.32110 178.00559 34775 ft 512 kts 48°
2026-04-25 02:03 58.37006 178.10399 34769 ft 512 kts 48°
2026-04-25 02:03 58.41900 178.20275 34768 ft 512 kts 48°
2026-04-25 02:04 58.46786 178.30180 34761 ft 512 kts 48°
2026-04-25 02:04 58.51660 178.40101 34763 ft 511 kts 49°
2026-04-25 02:05 58.56511 178.50021 34760 ft 511 kts 49°
2026-04-25 02:05 58.61360 178.59981 34757 ft 511 kts 49°
2026-04-25 02:06 58.66172 178.69906 34757 ft 511 kts 49°
2026-04-25 02:06 58.71007 178.79922 34752 ft 511 kts 49°
2026-04-25 02:07 58.75838 178.89974 34754 ft 511 kts 49°
2026-04-25 02:07 58.80649 179.00027 34750 ft 510 kts 49°
2026-04-25 02:08 58.85448 179.10101 34747 ft 509 kts 49°
2026-04-25 02:08 58.90235 179.20194 34746 ft 510 kts 49°
2026-04-25 02:09 58.95020 179.30328 34748 ft 510 kts 49°
2026-04-25 02:09 58.99796 179.40486 34740 ft 510 kts 50°
2026-04-25 02:10 59.04559 179.50662 34743 ft 510 kts 50°
2026-04-25 02:10 59.09267 179.60762 34744 ft 508 kts 50°
2026-04-25 02:11 59.14012 179.70990 34743 ft 507 kts 50°
2026-04-25 02:11 59.18736 179.81220 34744 ft 507 kts 50°
2026-04-25 02:12 59.23448 179.91471 34744 ft 507 kts 50°
2026-04-25 02:12 59.28152 -179.98252 34728 ft 507 kts 50°
2026-04-25 02:13 59.32849 -179.87945 34741 ft 507 kts 50°
2026-04-25 02:13 59.37538 -179.77609 34735 ft 507 kts 50°
2026-04-25 02:14 59.42214 -179.67253 34738 ft 507 kts 50°
2026-04-25 02:14 59.46864 -179.56912 34738 ft 507 kts 51°
2026-04-25 02:15 59.51528 -179.46490 34731 ft 507 kts 51°
2026-04-25 02:15 59.56181 -179.36044 34732 ft 507 kts 51°
2026-04-25 02:16 59.60826 -179.25571 34729 ft 507 kts 51°
2026-04-25 02:16 59.65457 -179.15080 34733 ft 506 kts 51°
2026-04-25 02:17 59.70075 -179.04573 34733 ft 506 kts 51°
2026-04-25 02:17 59.74683 -178.94037 34727 ft 506 kts 51°
2026-04-25 02:18 59.79287 -178.83465 34728 ft 506 kts 51°
2026-04-25 02:18 59.83881 -178.72864 34723 ft 506 kts 51°
2026-04-25 02:19 59.88433 -178.62315 34717 ft 506 kts 51°
2026-04-25 02:19 59.93004 -178.51671 34723 ft 505 kts 51°
2026-04-25 02:20 59.97558 -178.41017 34714 ft 505 kts 52°
2026-04-25 02:20 60.02107 -178.30326 34714 ft 505 kts 52°
2026-04-25 02:21 60.06648 -178.19604 34708 ft 505 kts 52°
2026-04-25 02:21 60.11176 -178.08863 34708 ft 505 kts 52°
2026-04-25 02:22 60.15664 -177.98168 34698 ft 504 kts 52°
2026-04-25 02:22 60.20434 -177.87820 34707 ft 506 kts 43°
2026-04-25 02:23 60.25799 -177.78649 34700 ft 507 kts 41°
2026-04-25 02:23 60.31254 -177.69643 34699 ft 507 kts 41°
2026-04-25 02:24 60.36722 -177.60623 34700 ft 507 kts 41°
2026-04-25 02:24 60.42170 -177.51563 34692 ft 507 kts 41°
2026-04-25 02:25 60.47570 -177.42524 34693 ft 506 kts 41°
2026-04-25 02:25 60.52989 -177.33404 34685 ft 506 kts 41°
2026-04-25 02:26 60.58407 -177.24247 34682 ft 506 kts 41°
2026-04-25 02:26 60.63810 -177.15074 34676 ft 506 kts 41°
2026-04-25 02:27 60.69209 -177.05866 34681 ft 506 kts 41°
2026-04-25 02:27 60.74601 -176.96631 34670 ft 506 kts 41°
2026-04-25 02:28 60.79979 -176.87376 34671 ft 505 kts 42°
2026-04-25 02:28 60.85359 -176.78077 34665 ft 505 kts 42°
2026-04-25 02:29 60.90727 -176.68754 34667 ft 505 kts 42°
2026-04-25 02:29 60.96086 -176.59405 34670 ft 505 kts 42°
2026-04-25 02:30 61.01438 -176.50025 34661 ft 505 kts 42°
2026-04-25 02:30 61.06743 -176.40687 34669 ft 504 kts 42°
2026-04-25 02:31 61.12068 -176.31269 34670 ft 503 kts 42°
2026-04-25 02:31 61.17387 -176.21818 34669 ft 503 kts 42°
2026-04-25 02:32 61.22695 -176.12342 34669 ft 503 kts 42°
2026-04-25 02:32 61.27996 -176.02836 34666 ft 504 kts 43°
2026-04-25 02:33 61.33290 -175.93299 34670 ft 502 kts 43°
2026-04-25 02:33 61.38571 -175.83741 34670 ft 502 kts 43°
2026-04-25 02:34 61.43841 -175.74157 34670 ft 502 kts 43°
2026-04-25 02:34 61.49101 -175.64549 34670 ft 502 kts 43°
2026-04-25 02:35 61.54320 -175.54968 34676 ft 502 kts 43°
2026-04-25 02:35 61.59565 -175.45297 34679 ft 501 kts 43°
2026-04-25 02:36 61.64797 -175.35603 34679 ft 501 kts 43°
2026-04-25 02:36 61.70016 -175.25889 34679 ft 501 kts 43°
2026-04-25 02:37 61.75224 -175.16148 34681 ft 501 kts 43°
2026-04-25 02:37 61.80433 -175.06362 34687 ft 501 kts 43°
2026-04-25 02:38 61.85632 -174.96547 34678 ft 500 kts 44°
2026-04-25 02:38 61.90816 -174.86713 34682 ft 499 kts 44°
2026-04-25 02:39 61.95986 -174.76860 34689 ft 499 kts 44°
2026-04-25 02:39 62.01112 -174.67043 34689 ft 499 kts 44°
2026-04-25 02:40 62.06256 -174.57145 34699 ft 499 kts 44°
2026-04-25 02:40 62.11403 -174.47195 34704 ft 499 kts 44°
2026-04-25 02:41 62.16534 -174.37227 34691 ft 499 kts 44°
2026-04-25 02:41 62.21666 -174.27212 34703 ft 499 kts 44°
2026-04-25 02:42 62.25958 -174.18797 34710 ft 499 kts 44°
2026-04-25 02:42 62.31038 -174.08792 34715 ft 499 kts 44°
2026-04-25 02:43 62.36147 -173.98684 34717 ft 499 kts 44°
2026-04-25 02:43 62.41217 -173.88604 34712 ft 498 kts 45°
2026-04-25 02:44 62.46301 -173.78448 34727 ft 497 kts 45°
2026-04-25 02:44 62.51376 -173.68260 34730 ft 497 kts 45°
2026-04-25 02:45 62.56440 -173.58041 34733 ft 497 kts 45°
2026-04-25 02:45 62.61498 -173.47788 34740 ft 497 kts 45°
2026-04-25 02:46 62.66544 -173.37508 34741 ft 497 kts 45°
2026-04-25 02:46 62.71583 -173.27193 34737 ft 496 kts 45°
2026-04-25 02:47 62.76602 -173.16867 34754 ft 496 kts 45°
2026-04-25 02:47 62.81611 -173.06510 34755 ft 496 kts 45°
2026-04-25 02:48 62.86582 -172.96182 34756 ft 496 kts 46°
2026-04-25 02:48 62.91578 -172.85751 34757 ft 496 kts 46°
2026-04-25 02:49 62.96569 -172.75280 34770 ft 495 kts 46°
2026-04-25 02:49 63.01533 -172.64812 34773 ft 494 kts 46°
2026-04-25 02:50 63.06489 -172.54310 34779 ft 494 kts 46°
2026-04-25 02:50 63.11427 -172.43792 34785 ft 494 kts 46°
2026-04-25 02:51 63.16374 -172.33203 34782 ft 494 kts 46°
2026-04-25 02:51 63.21274 -172.22663 34788 ft 494 kts 46°
2026-04-25 02:52 63.26194 -172.12026 34787 ft 494 kts 46°
2026-04-25 02:52 63.31103 -172.01360 34790 ft 493 kts 46°
2026-04-25 02:53 63.36004 -171.90657 34793 ft 493 kts 47°
2026-04-25 02:53 63.40892 -171.79930 34798 ft 493 kts 47°
2026-04-25 02:54 63.45780 -171.69146 34805 ft 493 kts 47°
2026-04-25 02:54 63.50650 -171.58348 34807 ft 493 kts 47°
2026-04-25 02:55 63.55485 -171.47575 34810 ft 492 kts 47°
2026-04-25 02:55 63.60327 -171.36732 34810 ft 492 kts 47°
2026-04-25 02:56 63.65167 -171.25833 34812 ft 492 kts 47°
2026-04-25 02:56 63.69995 -171.14909 34812 ft 492 kts 47°
2026-04-25 02:57 63.74811 -171.03956 34824 ft 492 kts 47°
2026-04-25 02:57 63.79626 -170.92949 34821 ft 492 kts 47°
2026-04-25 02:58 63.84421 -170.81930 34829 ft 491 kts 47°
2026-04-25 02:58 63.89213 -170.70860 34828 ft 491 kts 48°
2026-04-25 02:59 63.93989 -170.59771 34841 ft 491 kts 48°
2026-04-25 02:59 63.98732 -170.48702 34837 ft 492 kts 48°
2026-04-25 03:00 64.03505 -170.37505 34843 ft 492 kts 48°
2026-04-25 03:00 64.08265 -170.26279 34846 ft 492 kts 48°
2026-04-25 03:01 64.13016 -170.15017 34852 ft 492 kts 48°
2026-04-25 03:01 64.17760 -170.03711 34853 ft 492 kts 49°
2026-04-25 03:02 64.22494 -169.92369 34853 ft 492 kts 49°
2026-04-25 03:02 64.27153 -169.81150 34856 ft 492 kts 49°
2026-04-25 03:03 64.31869 -169.69733 34849 ft 492 kts 49°
2026-04-25 03:03 64.36577 -169.58271 34859 ft 492 kts 49°
2026-04-25 03:04 64.41287 -169.46746 34864 ft 493 kts 49°
2026-04-25 03:04 64.45988 -169.35180 34866 ft 493 kts 49°
2026-04-25 03:05 64.53021 -169.17762 34875 ft 493 kts 49°
2026-04-25 03:05 64.57694 -169.06111 34877 ft 493 kts 49°
2026-04-25 03:06 64.62366 -168.94398 34884 ft 493 kts 49°
2026-04-25 03:06 64.67018 -168.82671 34889 ft 493 kts 49°
2026-04-25 03:07 64.71671 -168.70878 34887 ft 493 kts 50°
2026-04-25 03:07 64.76282 -168.59130 34881 ft 493 kts 50°
2026-04-25 03:08 64.80912 -168.47267 34896 ft 493 kts 50°
2026-04-25 03:08 64.85534 -168.35361 34895 ft 493 kts 50°
2026-04-25 03:09 64.90148 -168.23408 34901 ft 493 kts 50°
2026-04-25 03:09 64.94827 -168.11553 34906 ft 495 kts 45°
2026-04-25 03:10 65.00504 -168.02328 34897 ft 500 kts 27°
2026-04-25 03:10 65.07014 -167.96380 34902 ft 502 kts 21°
2026-04-25 03:11 65.13636 -167.91044 34898 ft 503 kts 20°
2026-04-25 03:11 65.20271 -167.85757 34912 ft 502 kts 20°
2026-04-25 03:12 65.26883 -167.80402 34913 ft 502 kts 21°
2026-04-25 03:12 65.33489 -167.74981 34913 ft 502 kts 21°
2026-04-25 03:13 65.40093 -167.69523 34913 ft 502 kts 21°
2026-04-25 03:13 65.46696 -167.64039 34912 ft 502 kts 21°
2026-04-25 03:14 65.53291 -167.58534 34916 ft 501 kts 21°
2026-04-25 03:14 65.59876 -167.53009 34918 ft 501 kts 21°
2026-04-25 03:15 65.66424 -167.47485 34918 ft 501 kts 21°
2026-04-25 03:15 65.73007 -167.41902 34921 ft 501 kts 21°
2026-04-25 03:16 65.79592 -167.36287 34914 ft 501 kts 21°
2026-04-25 03:16 65.86163 -167.30653 34920 ft 501 kts 21°
2026-04-25 03:17 65.92733 -167.24988 34922 ft 501 kts 21°
2026-04-25 03:17 65.99304 -167.19293 34928 ft 501 kts 21°
2026-04-25 03:18 66.05876 -167.13566 34917 ft 500 kts 21°
2026-04-25 03:18 66.12425 -167.07827 34933 ft 499 kts 21°
2026-04-25 03:19 66.18967 -167.02063 34926 ft 499 kts 21°
2026-04-25 03:19 66.25515 -166.96261 34930 ft 499 kts 21°
2026-04-25 03:20 66.32055 -166.90435 34936 ft 499 kts 21°
2026-04-25 03:20 66.38583 -166.84586 34938 ft 499 kts 21°
2026-04-25 03:21 66.45107 -166.78710 34944 ft 498 kts 21°
2026-04-25 03:21 66.51631 -166.72799 34944 ft 498 kts 22°
2026-04-25 03:22 66.58107 -166.66900 34945 ft 498 kts 22°
2026-04-25 03:22 66.64582 -166.60970 34950 ft 498 kts 22°
2026-04-25 03:23 66.71089 -166.54974 34960 ft 498 kts 22°
2026-04-25 03:23 66.77607 -166.48936 34961 ft 499 kts 22°
2026-04-25 03:24 66.84127 -166.42863 34969 ft 499 kts 22°
2026-04-25 03:24 66.90650 -166.36752 34968 ft 499 kts 22°
2026-04-25 03:25 66.97165 -166.30613 34969 ft 499 kts 22°
2026-04-25 03:25 67.03678 -166.24442 34977 ft 499 kts 22°
2026-04-25 03:26 67.10182 -166.18242 34985 ft 499 kts 22°
2026-04-25 03:26 67.16681 -166.12012 34985 ft 499 kts 22°
2026-04-25 03:27 67.23178 -166.05749 34993 ft 499 kts 22°
2026-04-25 03:27 67.29678 -165.99445 34992 ft 498 kts 22°
2026-04-25 03:28 67.36155 -165.93127 34999 ft 497 kts 22°
2026-04-25 03:28 67.42593 -165.86811 34999 ft 497 kts 22°
2026-04-25 03:29 67.49060 -165.80430 35004 ft 497 kts 22°
2026-04-25 03:29 67.55531 -165.74008 35004 ft 497 kts 22°
2026-04-25 03:30 67.62002 -165.67545 35008 ft 497 kts 22°
2026-04-25 03:30 67.68453 -165.61068 35010 ft 496 kts 22°
2026-04-25 03:31 67.73809 -165.55661 35010 ft 496 kts 22°
2026-04-25 03:31 67.80256 -165.49117 35009 ft 496 kts 22°
2026-04-25 03:32 67.87744 -165.41467 35018 ft 496 kts 22°
2026-04-25 03:32 67.93144 -165.35917 35018 ft 496 kts 22°
2026-04-25 03:33 67.99584 -165.29262 35023 ft 496 kts 22°
2026-04-25 03:33 68.05974 -165.22619 35023 ft 496 kts 22°
2026-04-25 03:34 68.12404 -165.15895 35031 ft 496 kts 22°
2026-04-25 03:34 68.18833 -165.09129 35031 ft 496 kts 23°
2026-04-25 03:35 68.25256 -165.02332 35043 ft 496 kts 22°
2026-04-25 03:35 68.31666 -164.95506 35050 ft 496 kts 22°
2026-04-25 03:36 68.38083 -164.88630 35050 ft 496 kts 22°
2026-04-25 03:36 68.44498 -164.81716 35058 ft 496 kts 23°
2026-04-25 03:37 68.50908 -164.74763 35049 ft 496 kts 22°
2026-04-25 03:37 68.57272 -164.67820 35073 ft 496 kts 22°
2026-04-25 03:38 68.63715 -164.60745 35072 ft 496 kts 22°
2026-04-25 03:38 68.70072 -164.53723 35082 ft 496 kts 23°
2026-04-25 03:39 68.76472 -164.46608 35077 ft 496 kts 23°
2026-04-25 03:39 68.82869 -164.39453 35085 ft 496 kts 22°
2026-04-25 03:40 68.89270 -164.32248 35091 ft 497 kts 22°
2026-04-25 03:40 68.95675 -164.24995 35091 ft 497 kts 23°
2026-04-25 03:41 69.02076 -164.17700 35095 ft 497 kts 23°
2026-04-25 03:41 69.08479 -164.10356 35097 ft 497 kts 23°
2026-04-25 03:42 69.14830 -164.03025 35098 ft 497 kts 23°
2026-04-25 03:42 69.21209 -163.95614 35104 ft 500 kts 23°
2026-04-25 03:43 69.27631 -163.88109 35102 ft 500 kts 23°
2026-04-25 03:43 69.34054 -163.80551 35113 ft 500 kts 23°
2026-04-25 03:44 69.40479 -163.72941 35113 ft 500 kts 23°
2026-04-25 03:44 69.46899 -163.65290 35118 ft 501 kts 23°
2026-04-25 03:45 69.53360 -163.57538 35121 ft 504 kts 23°
2026-04-25 03:45 69.59810 -163.49753 35127 ft 503 kts 23°
2026-04-25 03:46 69.66267 -163.41905 35129 ft 504 kts 23°
2026-04-25 03:46 69.72722 -163.34003 35135 ft 504 kts 23°
2026-04-25 03:47 69.79166 -163.26065 35138 ft 504 kts 23°
2026-04-25 03:47 69.85638 -163.18040 35135 ft 507 kts 23°
2026-04-25 03:48 69.92111 -163.09959 35144 ft 505 kts 23°
2026-04-25 03:48 69.98527 -163.01896 35144 ft 505 kts 23°
2026-04-25 03:49 70.04932 -162.93393 35142 ft 507 kts 26°
2026-04-25 03:49 70.11216 -162.84024 35162 ft 506 kts 27°
2026-04-25 03:50 70.17493 -162.74566 35168 ft 506 kts 27°
2026-04-25 03:50 70.23786 -162.65178 35180 ft 508 kts 26°
2026-04-25 03:51 70.30095 -162.55777 35184 ft 507 kts 26°
2026-04-25 03:51 70.36380 -162.46366 35188 ft 506 kts 26°
2026-04-25 03:52 70.42683 -162.36850 35187 ft 509 kts 26°
2026-04-25 03:52 70.49006 -162.27237 35197 ft 509 kts 26°
2026-04-25 03:53 70.55303 -162.17598 35202 ft 508 kts 26°
2026-04-25 03:53 70.61597 -162.07891 35204 ft 510 kts 27°
2026-04-25 03:54 70.67897 -161.98101 35206 ft 509 kts 27°
2026-04-25 03:54 70.74133 -161.88346 35215 ft 507 kts 27°
2026-04-25 03:55 70.80414 -161.78454 35214 ft 508 kts 27°
2026-04-25 03:55 70.86690 -161.68499 35213 ft 508 kts 27°
2026-04-25 03:56 70.92937 -161.58513 35217 ft 507 kts 27°
2026-04-25 03:56 70.99195 -161.48438 35223 ft 508 kts 27°
2026-04-25 03:57 71.05449 -161.38301 35233 ft 508 kts 27°
2026-04-25 03:57 71.11691 -161.28112 35234 ft 508 kts 27°
2026-04-25 03:58 71.17935 -161.17842 35242 ft 508 kts 27°
2026-04-25 03:58 71.24172 -161.07504 35242 ft 508 kts 27°
2026-04-25 03:59 71.30350 -160.97188 35263 ft 507 kts 27°
2026-04-25 03:59 71.36567 -160.86738 35254 ft 508 kts 28°
2026-04-25 04:00 71.42794 -160.76194 35269 ft 508 kts 28°
2026-04-25 04:00 71.49004 -160.65596 35269 ft 507 kts 28°
2026-04-25 04:01 71.55207 -160.54930 35276 ft 508 kts 28°
2026-04-25 04:01 71.61417 -160.44172 35278 ft 508 kts 28°
2026-04-25 04:02 71.67568 -160.33445 35285 ft 507 kts 28°
2026-04-25 04:02 71.73750 -160.22585 35285 ft 508 kts 28°
2026-04-25 04:03 71.79892 -160.11700 35293 ft 507 kts 28°
2026-04-25 04:03 71.86056 -160.00694 35291 ft 507 kts 28°
2026-04-25 04:04 71.92217 -159.89615 35309 ft 508 kts 28°
2026-04-25 04:04 71.98385 -159.78443 35305 ft 507 kts 29°
2026-04-25 04:05 72.04524 -159.67234 35313 ft 507 kts 29°
2026-04-25 04:05 72.10669 -159.55926 35311 ft 508 kts 29°
2026-04-25 04:06 72.16807 -159.44544 35318 ft 507 kts 29°
2026-04-25 04:06 72.22934 -159.33098 35325 ft 507 kts 29°
2026-04-25 04:07 72.29047 -159.21586 35329 ft 507 kts 29°
2026-04-25 04:07 72.35124 -159.10048 35327 ft 508 kts 30°
2026-04-25 04:08 72.41236 -158.98356 35332 ft 507 kts 30°
2026-04-25 04:08 72.47343 -158.86586 35332 ft 508 kts 30°
2026-04-25 04:09 72.53440 -158.74740 35353 ft 508 kts 30°
2026-04-25 04:09 72.59523 -158.62825 35346 ft 506 kts 30°
2026-04-25 04:10 72.65593 -158.50843 35354 ft 507 kts 30°
2026-04-25 04:10 72.71661 -158.38766 35353 ft 507 kts 30°
2026-04-25 04:11 72.80742 -158.20518 35361 ft 506 kts 30°
2026-04-25 04:12 72.86791 -158.08234 35360 ft 507 kts 31°
2026-04-25 04:12 72.92830 -157.95873 35371 ft 506 kts 31°
2026-04-25 04:13 72.98855 -157.83441 35372 ft 506 kts 31°
2026-04-25 04:13 73.04870 -157.70928 35379 ft 506 kts 31°
2026-04-25 04:14 73.10874 -157.58335 35378 ft 506 kts 31°
2026-04-25 04:14 73.16836 -157.45727 35385 ft 505 kts 31°
2026-04-25 04:15 73.22819 -157.32973 35386 ft 505 kts 31°
2026-04-25 04:15 73.28798 -157.20123 35395 ft 505 kts 31°
2026-04-25 04:16 73.34765 -157.07190 35394 ft 505 kts 31°
2026-04-25 04:16 73.40728 -156.94158 35402 ft 506 kts 32°
2026-04-25 04:17 73.46683 -156.81031 35403 ft 505 kts 32°
2026-04-25 04:17 73.52628 -156.67820 35414 ft 505 kts 32°
2026-04-25 04:18 73.58559 -156.54528 35414 ft 505 kts 32°
2026-04-25 04:18 73.64487 -156.41130 35414 ft 505 kts 32°
2026-04-25 04:19 73.70399 -156.27656 35414 ft 505 kts 32°
2026-04-25 04:19 73.76263 -156.14175 35432 ft 505 kts 32°
2026-04-25 04:20 73.82151 -156.00525 35425 ft 504 kts 32°
2026-04-25 04:20 73.88024 -155.86790 35425 ft 504 kts 32°
2026-04-25 04:21 73.93891 -155.72950 35423 ft 504 kts 32°
2026-04-25 04:21 73.99744 -155.59026 35433 ft 504 kts 32°
2026-04-25 04:22 74.04606 -155.47368 35433 ft 504 kts 33°
2026-04-25 04:22 74.10402 -155.33359 35433 ft 504 kts 33°
2026-04-25 04:23 74.16221 -155.19170 35439 ft 504 kts 33°
2026-04-25 04:23 74.22049 -155.04836 35438 ft 504 kts 33°
2026-04-25 04:24 74.27855 -154.90428 35447 ft 504 kts 33°
2026-04-25 04:24 74.33660 -154.75896 35447 ft 504 kts 33°
2026-04-25 04:25 74.39443 -154.61287 35452 ft 503 kts 33°
2026-04-25 04:25 74.45227 -154.46550 35455 ft 503 kts 33°
2026-04-25 04:26 74.50991 -154.31727 35456 ft 503 kts 34°
2026-04-25 04:26 74.56745 -154.16801 35457 ft 504 kts 34°
2026-04-25 04:27 74.62501 -154.01731 35467 ft 504 kts 34°
2026-04-25 04:27 74.68240 -153.86569 35466 ft 503 kts 34°
2026-04-25 04:28 74.73974 -153.71282 35477 ft 503 kts 34°
2026-04-25 04:28 74.79650 -153.56012 35476 ft 503 kts 34°
2026-04-25 04:29 74.85358 -153.40515 35479 ft 503 kts 34°
2026-04-25 04:29 74.91044 -153.24934 35479 ft 503 kts 34°
2026-04-25 04:30 74.96739 -153.09182 35486 ft 503 kts 34°
2026-04-25 04:30 75.02410 -152.93373 35490 ft 503 kts 34°
2026-04-25 04:31 75.08105 -152.77544 35493 ft 504 kts 34°
2026-04-25 04:31 75.13791 -152.61643 35493 ft 503 kts 35°
2026-04-25 04:32 75.19465 -152.45598 35501 ft 503 kts 35°
2026-04-25 04:32 75.25117 -152.29445 35514 ft 503 kts 35°
2026-04-25 04:33 75.30769 -152.13132 35508 ft 504 kts 35°
2026-04-25 04:33 75.36402 -151.96720 35509 ft 503 kts 35°
2026-04-25 04:34 75.41994 -151.80273 35511 ft 503 kts 35°
2026-04-25 04:34 75.47609 -151.63597 35511 ft 504 kts 36°
2026-04-25 04:35 75.53246 -151.46692 35512 ft 504 kts 36°
2026-04-25 04:35 75.58807 -151.29855 35521 ft 504 kts 36°
2026-04-25 04:36 75.64392 -151.12777 35520 ft 504 kts 36°
2026-04-25 04:36 75.69964 -150.95572 35525 ft 504 kts 36°
2026-04-25 04:37 75.75521 -150.78242 35524 ft 504 kts 36°
2026-04-25 04:37 75.81071 -150.60762 35530 ft 504 kts 36°
2026-04-25 04:38 75.86602 -150.43165 35516 ft 504 kts 36°
2026-04-25 04:38 75.92132 -150.25398 35537 ft 504 kts 37°
2026-04-25 04:39 75.97606 -150.07633 35543 ft 504 kts 37°
2026-04-25 04:39 76.03110 -149.89592 35546 ft 504 kts 37°
2026-04-25 04:40 76.08588 -149.71451 35546 ft 504 kts 37°
2026-04-25 04:40 76.14061 -149.53141 35544 ft 504 kts 37°
2026-04-25 04:41 76.19518 -149.34696 35543 ft 504 kts 37°
2026-04-25 04:41 76.24957 -149.16123 35546 ft 504 kts 38°
2026-04-25 04:42 76.30379 -148.97416 35548 ft 504 kts 38°
2026-04-25 04:42 76.35761 -148.78652 35549 ft 504 kts 38°
2026-04-25 04:43 76.41154 -148.59657 35560 ft 504 kts 38°
2026-04-25 04:43 76.46535 -148.40502 35554 ft 504 kts 38°
2026-04-25 04:44 76.51896 -148.21216 35554 ft 504 kts 39°
2026-04-25 04:44 76.57248 -148.01761 35563 ft 504 kts 39°
2026-04-25 04:45 76.62545 -147.82296 35558 ft 504 kts 39°
2026-04-25 04:45 76.67857 -147.62571 35553 ft 504 kts 39°
2026-04-25 04:46 76.73173 -147.42619 35563 ft 505 kts 40°
2026-04-25 04:46 76.78472 -147.22514 35562 ft 505 kts 40°
2026-04-25 04:47 76.83761 -147.02222 35561 ft 505 kts 40°
2026-04-25 04:47 76.89039 -146.81757 35562 ft 505 kts 40°
2026-04-25 04:48 76.94294 -146.61151 35563 ft 505 kts 40°
2026-04-25 04:48 76.99535 -146.40375 35561 ft 505 kts 40°
2026-04-25 04:49 77.04756 -146.19446 35562 ft 505 kts 41°
2026-04-25 04:49 77.09933 -145.98465 35567 ft 505 kts 41°
2026-04-25 04:50 77.15116 -145.77218 35570 ft 506 kts 41°
2026-04-25 04:50 77.20301 -145.55727 35571 ft 505 kts 41°
2026-04-25 04:51 77.25449 -145.34144 35579 ft 505 kts 42°
2026-04-25 04:51 77.30590 -145.12345 35572 ft 505 kts 42°
2026-04-25 04:52 77.35710 -144.90384 35573 ft 505 kts 42°
2026-04-25 04:52 77.40811 -144.68255 35572 ft 505 kts 42°
2026-04-25 04:53 77.45893 -144.45948 35573 ft 505 kts 43°
2026-04-25 04:53 77.50954 -144.23475 35583 ft 506 kts 43°
2026-04-25 04:54 77.55993 -144.00836 35574 ft 505 kts 43°
2026-04-25 04:54 77.61029 -143.77946 35573 ft 505 kts 43°
2026-04-25 04:55 77.66035 -143.54920 35571 ft 505 kts 44°
2026-04-25 04:55 77.70980 -143.31904 35572 ft 505 kts 44°
2026-04-25 04:56 77.75956 -143.08464 35573 ft 505 kts 44°
2026-04-25 04:56 77.80903 -142.84880 35579 ft 505 kts 44°
2026-04-25 04:57 77.85827 -142.61126 35576 ft 505 kts 44°
2026-04-25 04:57 77.90727 -142.37197 35577 ft 505 kts 45°
2026-04-25 04:58 77.95610 -142.13057 35579 ft 505 kts 45°
2026-04-25 04:58 78.00468 -141.88743 35576 ft 505 kts 45°
2026-04-25 04:59 78.05312 -141.64199 35579 ft 505 kts 45°
2026-04-25 04:59 78.10124 -141.39514 35577 ft 504 kts 46°
2026-04-25 05:00 78.14913 -141.14643 35577 ft 504 kts 46°
2026-04-25 05:00 78.19713 -140.89694 35579 ft 504 kts 44°
2026-04-25 05:01 78.24791 -140.66016 35578 ft 504 kts 41°
2026-04-25 05:01 78.29924 -140.42553 35566 ft 504 kts 42°
2026-04-25 05:02 78.34964 -140.18842 35566 ft 503 kts 43°
2026-04-25 05:02 78.39940 -139.94845 35562 ft 503 kts 43°
2026-04-25 05:03 78.44931 -139.70392 35563 ft 503 kts 43°
2026-04-25 05:03 78.49903 -139.45733 35579 ft 503 kts 44°
2026-04-25 05:04 78.54855 -139.20869 35580 ft 503 kts 44°
2026-04-25 05:04 78.59785 -138.95805 35568 ft 503 kts 44°
2026-04-25 05:05 78.64687 -138.70564 35565 ft 502 kts 44°
2026-04-25 05:05 78.69538 -138.45259 35565 ft 503 kts 45°
2026-04-25 05:06 78.74395 -138.19591 35562 ft 503 kts 45°
2026-04-25 05:06 78.79236 -137.93669 35562 ft 503 kts 45°
2026-04-25 05:07 78.84049 -137.67556 35557 ft 502 kts 45°
2026-04-25 05:07 78.88827 -137.41283 35557 ft 502 kts 45°
2026-04-25 05:08 78.93591 -137.14742 35551 ft 502 kts 46°
2026-04-25 05:08 78.98330 -136.87984 35551 ft 502 kts 46°
2026-04-25 05:09 79.03042 -136.61022 35551 ft 502 kts 46°
2026-04-25 05:09 79.07732 -136.33814 35557 ft 502 kts 46°
2026-04-25 05:10 79.11605 -136.11065 35546 ft 501 kts 46°
2026-04-25 05:10 79.16242 -135.83481 35548 ft 501 kts 47°
2026-04-25 05:11 79.20854 -135.55667 35553 ft 501 kts 47°
2026-04-25 05:11 79.25441 -135.27625 35550 ft 501 kts 47°
2026-04-25 05:12 79.32275 -134.85102 35558 ft 501 kts 47°
2026-04-25 05:12 79.36784 -134.56537 35544 ft 500 kts 48°
2026-04-25 05:13 79.41268 -134.27737 35548 ft 499 kts 48°
2026-04-25 05:13 79.45729 -133.98674 35543 ft 499 kts 49°
2026-04-25 05:14 79.50162 -133.69377 35546 ft 500 kts 49°
2026-04-25 05:15 79.56734 -133.25146 35542 ft 500 kts 49°
2026-04-25 05:15 79.61099 -132.95228 35540 ft 500 kts 49°
2026-04-25 05:16 79.65439 -132.65050 35540 ft 500 kts 50°
2026-04-25 05:16 79.69751 -132.34614 35537 ft 500 kts 50°
2026-04-25 05:17 79.74034 -132.03924 35540 ft 500 kts 50°
2026-04-25 05:17 79.78288 -131.72985 35548 ft 500 kts 51°
2026-04-25 05:18 79.82514 -131.41777 35530 ft 499 kts 51°
2026-04-25 05:18 79.86699 -131.10391 35530 ft 499 kts 51°
2026-04-25 05:19 79.90857 -130.78733 35531 ft 499 kts 51°
2026-04-25 05:19 79.94958 -130.47026 35530 ft 500 kts 52°
2026-04-25 05:20 79.99062 -130.14799 35522 ft 500 kts 52°
2026-04-25 05:20 80.03129 -129.82352 35527 ft 499 kts 52°
2026-04-25 05:21 80.07157 -129.49704 35521 ft 498 kts 52°
2026-04-25 05:21 80.11155 -129.16778 35519 ft 498 kts 53°
2026-04-25 05:22 80.15120 -128.83596 35514 ft 499 kts 53°
2026-04-25 05:22 80.19025 -128.50380 35516 ft 499 kts 53°
2026-04-25 05:23 80.22905 -128.16845 35529 ft 499 kts 54°
2026-04-25 05:23 80.26793 -127.82673 35514 ft 498 kts 54°
2026-04-25 05:24 80.30596 -127.48693 35508 ft 498 kts 54°
2026-04-25 05:24 80.34389 -127.14232 35513 ft 498 kts 54°
2026-04-25 05:25 80.38151 -126.79468 35511 ft 498 kts 55°
2026-04-25 05:25 80.41877 -126.44444 35510 ft 498 kts 55°
2026-04-25 05:26 80.45567 -126.09158 35511 ft 498 kts 56°
2026-04-25 05:26 80.49218 -125.73632 35503 ft 497 kts 56°
2026-04-25 05:27 80.52831 -125.37857 35501 ft 498 kts 56°
2026-04-25 05:27 80.56411 -125.01775 35499 ft 498 kts 57°
2026-04-25 05:28 80.59933 -124.65638 35502 ft 498 kts 57°
2026-04-25 05:28 80.63441 -124.28996 35507 ft 498 kts 57°
2026-04-25 05:29 80.66905 -123.92136 35503 ft 497 kts 57°
2026-04-25 05:29 80.70329 -123.55038 35489 ft 497 kts 58°
2026-04-25 05:30 80.73714 -123.17660 35503 ft 498 kts 58°
2026-04-25 05:30 80.77068 -122.79930 35503 ft 498 kts 59°
2026-04-25 05:31 80.80376 -122.42004 35504 ft 498 kts 59°
2026-04-25 05:31 80.83650 -122.03737 35499 ft 498 kts 59°
2026-04-25 05:32 80.86880 -121.65239 35494 ft 498 kts 60°
2026-04-25 05:32 80.90067 -121.26499 35496 ft 498 kts 60°
2026-04-25 05:33 80.93218 -120.87438 35491 ft 498 kts 60°
2026-04-25 05:33 80.96325 -120.48130 35490 ft 498 kts 61°
2026-04-25 05:34 80.99371 -120.08794 35499 ft 498 kts 61°
2026-04-25 05:34 81.02481 -119.69303 35492 ft 497 kts 59°
2026-04-25 05:35 81.05755 -119.30287 35486 ft 497 kts 59°
2026-04-25 05:35 81.08998 -118.90998 35487 ft 497 kts 59°
2026-04-25 05:36 81.12168 -118.51257 35487 ft 497 kts 60°
2026-04-25 05:36 81.15278 -118.11201 35487 ft 498 kts 61°
2026-04-25 05:37 81.18346 -117.70790 35493 ft 497 kts 61°
2026-04-25 05:37 81.21365 -117.30216 35491 ft 497 kts 62°
2026-04-25 05:38 81.24347 -116.89280 35490 ft 497 kts 62°
2026-04-25 05:38 81.27282 -116.48125 35485 ft 497 kts 62°
2026-04-25 05:39 81.30173 -116.06677 35484 ft 498 kts 63°
2026-04-25 05:39 81.33021 -115.64924 35482 ft 498 kts 63°
2026-04-25 05:40 81.35809 -115.23129 35483 ft 498 kts 64°
2026-04-25 05:40 81.38562 -114.80894 35484 ft 498 kts 64°
2026-04-25 05:41 81.41273 -114.38311 35486 ft 498 kts 64°
2026-04-25 05:41 81.43933 -113.95551 35487 ft 498 kts 65°
2026-04-25 05:42 81.46554 -113.52380 35485 ft 498 kts 65°
2026-04-25 05:42 81.49110 -113.09231 35487 ft 498 kts 66°
2026-04-25 05:43 81.51634 -112.65561 35484 ft 499 kts 66°
2026-04-25 05:43 81.54107 -112.21656 35484 ft 499 kts 66°
2026-04-25 05:44 81.56534 -111.77458 35488 ft 499 kts 67°
2026-04-25 05:44 81.58913 -111.32970 35488 ft 499 kts 68°
2026-04-25 05:45 81.61239 -110.88292 35484 ft 499 kts 68°
2026-04-25 05:45 81.63518 -110.43285 35480 ft 498 kts 68°
2026-04-25 05:46 81.65727 -109.98425 35487 ft 499 kts 69°
2026-04-25 05:46 81.67899 -109.53050 35488 ft 499 kts 69°
2026-04-25 05:47 81.70025 -109.07316 35486 ft 499 kts 70°
2026-04-25 05:47 81.72094 -108.61441 35503 ft 499 kts 70°
2026-04-25 05:48 81.74111 -108.15335 35493 ft 498 kts 71°
2026-04-25 05:48 81.76070 -107.69121 35495 ft 498 kts 71°
2026-04-25 05:49 81.77978 -107.22663 35498 ft 498 kts 72°
2026-04-25 05:49 81.79833 -106.75972 35497 ft 498 kts 72°
2026-04-25 05:50 81.81634 -106.29062 35497 ft 498 kts 73°
2026-04-25 05:50 81.83371 -105.82217 35493 ft 498 kts 73°
2026-04-25 05:51 81.85060 -105.35008 35491 ft 497 kts 73°
2026-04-25 05:51 81.86693 -104.87640 35498 ft 497 kts 74°
2026-04-25 05:52 81.88272 -104.40062 35497 ft 497 kts 75°
2026-04-25 05:52 81.89797 -103.92264 35503 ft 497 kts 75°
2026-04-25 05:53 81.91265 -103.44310 35514 ft 498 kts 76°
2026-04-25 05:53 81.92675 -102.96255 35506 ft 496 kts 76°
2026-04-25 05:54 81.94026 -102.48128 35506 ft 496 kts 76°
2026-04-25 05:54 81.95950 -101.75531 35508 ft 496 kts 77°
2026-04-25 05:55 81.97160 -101.27044 35508 ft 496 kts 77°
2026-04-25 05:55 81.98316 -100.78274 35529 ft 496 kts 78°
2026-04-25 05:56 81.99419 -100.29872 35517 ft 494 kts 76°
2026-04-25 05:56 82.01557 -99.83572 35529 ft 486 kts 60°
2026-04-25 05:57 82.04765 -99.40720 35527 ft 486 kts 57°
2026-04-25 05:57 82.08155 -98.98417 35527 ft 486 kts 57°
2026-04-25 05:58 82.11524 -98.55757 35529 ft 486 kts 58°
2026-04-25 05:58 82.14817 -98.12689 35533 ft 486 kts 58°
2026-04-25 05:59 82.18046 -97.69266 35541 ft 484 kts 59°
2026-04-25 05:59 82.21217 -97.25623 35540 ft 484 kts 59°
2026-04-25 06:00 82.23830 -96.88972 35543 ft 485 kts 59°
2026-04-25 06:00 82.26932 -96.44608 35551 ft 485 kts 60°
2026-04-25 06:01 82.29986 -95.99817 35549 ft 485 kts 60°
2026-04-25 06:01 82.32988 -95.54711 35563 ft 485 kts 62°
2026-04-25 06:02 82.35944 -95.09335 35558 ft 484 kts 61°
2026-04-25 06:02 82.38834 -94.63898 35545 ft 485 kts 62°
2026-04-25 06:03 82.41686 -94.17992 35553 ft 486 kts 63°
2026-04-25 06:03 82.44510 -93.71332 35554 ft 487 kts 63°
2026-04-25 06:04 82.47283 -93.24320 35558 ft 487 kts 63°
2026-04-25 06:04 82.50005 -92.76965 35556 ft 486 kts 64°
2026-04-25 06:05 82.52675 -92.29390 35569 ft 485 kts 64°
2026-04-25 06:05 82.55286 -91.81579 35551 ft 485 kts 65°
2026-04-25 06:06 82.57853 -91.33336 35553 ft 486 kts 65°
2026-04-25 06:06 82.60352 -90.85100 35565 ft 486 kts 65°
2026-04-25 06:07 82.62811 -90.36163 35565 ft 486 kts 66°
2026-04-25 06:07 82.65214 -89.86893 35578 ft 486 kts 68°
2026-04-25 06:08 82.67574 -89.37195 35565 ft 488 kts 68°
2026-04-25 06:08 82.69883 -88.87121 35563 ft 488 kts 69°
2026-04-25 06:09 82.72136 -88.36705 35557 ft 488 kts 69°
2026-04-25 06:09 82.74334 -87.85979 35553 ft 488 kts 70°
2026-04-25 06:10 82.76478 -87.34868 35562 ft 488 kts 70°
2026-04-25 06:10 82.78563 -86.83534 35561 ft 488 kts 70°
2026-04-25 06:11 82.80587 -86.31940 35560 ft 488 kts 70°
2026-04-25 06:11 82.82558 -85.79964 35563 ft 489 kts 72°
2026-04-25 06:12 82.84457 -85.28073 35560 ft 489 kts 71°
2026-04-25 06:12 82.86310 -84.75531 35556 ft 489 kts 72°
2026-04-25 06:13 82.88103 -84.22698 35554 ft 489 kts 73°
2026-04-25 06:14 82.90680 -83.42894 35564 ft 490 kts 74°
2026-04-25 06:14 82.92328 -82.89328 35561 ft 490 kts 75°
2026-04-25 06:15 82.93913 -82.35512 35568 ft 490 kts 75°
2026-04-25 06:15 82.95437 -81.81457 35557 ft 491 kts 75°
2026-04-25 06:16 82.96898 -81.27132 35560 ft 491 kts 76°
2026-04-25 06:16 82.98287 -80.72906 35563 ft 491 kts 77°
2026-04-25 06:17 82.99629 -80.17724 35563 ft 491 kts 78°
2026-04-25 06:17 83.00878 -79.62649 35562 ft 492 kts 79°
2026-04-25 06:18 83.01960 -79.07500 35559 ft 492 kts 80°
2026-04-25 06:18 83.02972 -78.51867 35549 ft 492 kts 79°
2026-04-25 06:19 83.03936 -77.96033 35546 ft 492 kts 80°
2026-04-25 06:19 83.04845 -77.39989 35546 ft 492 kts 81°
2026-04-25 06:20 83.05686 -76.84174 35544 ft 493 kts 82°
2026-04-25 06:20 83.06462 -76.27824 35545 ft 493 kts 83°
2026-04-25 06:21 83.07172 -75.71385 35540 ft 493 kts 83°
2026-04-25 06:21 83.07816 -75.14705 35541 ft 493 kts 84°
2026-04-25 06:22 83.08393 -74.58011 35544 ft 494 kts 84°
2026-04-25 06:22 83.08899 -74.01661 35553 ft 494 kts 85°
2026-04-25 06:23 83.09343 -73.44677 35544 ft 494 kts 85°
2026-04-25 06:23 83.09718 -72.87716 35541 ft 494 kts 86°
2026-04-25 06:24 83.10027 -72.30590 35540 ft 494 kts 86°
2026-04-25 06:24 83.10268 -71.73516 35538 ft 494 kts 87°
2026-04-25 06:25 83.10440 -71.16720 35536 ft 494 kts 88°
2026-04-25 06:25 83.10544 -70.59557 35545 ft 494 kts 89°
2026-04-25 06:26 83.10581 -70.02289 35536 ft 494 kts 89°
2026-04-25 06:26 83.10549 -69.45047 35540 ft 495 kts 90°
2026-04-25 06:27 83.10449 -68.87817 35545 ft 495 kts 90°
2026-04-25 06:27 83.10281 -68.30438 35539 ft 496 kts 91°
2026-04-25 06:28 83.10044 -67.73135 35555 ft 496 kts 91°
2026-04-25 06:28 83.09739 -67.15936 35544 ft 496 kts 92°
2026-04-25 06:29 83.09369 -66.59107 35544 ft 496 kts 93°
2026-04-25 06:29 83.08928 -66.01861 35545 ft 496 kts 93°
2026-04-25 06:30 83.08418 -65.44692 35559 ft 496 kts 94°
2026-04-25 06:30 83.07841 -64.87698 35562 ft 496 kts 94°
2026-04-25 06:31 83.07195 -64.30750 35553 ft 496 kts 95°
2026-04-25 06:31 83.06483 -63.73976 35561 ft 496 kts 96°
2026-04-25 06:32 83.05701 -63.17153 35561 ft 497 kts 96°
2026-04-25 06:32 83.04852 -62.60512 35569 ft 497 kts 97°
2026-04-25 06:33 83.03942 -62.04341 35554 ft 497 kts 97°
2026-04-25 06:33 83.02959 -61.47970 35558 ft 497 kts 98°
2026-04-25 06:34 83.01910 -60.91778 35553 ft 497 kts 98°
2026-04-25 06:34 83.00795 -60.35728 35560 ft 498 kts 99°
2026-04-25 06:35 82.99607 -59.79800 35552 ft 498 kts 100°
2026-04-25 06:35 82.98253 -59.24139 35549 ft 498 kts 102°
2026-04-25 06:36 82.96800 -58.68793 35553 ft 498 kts 102°
2026-04-25 06:36 82.95296 -58.13639 35551 ft 498 kts 102°
2026-04-25 06:37 82.93740 -57.58748 35555 ft 498 kts 103°
2026-04-25 06:37 82.92123 -57.04063 35553 ft 499 kts 103°
2026-04-25 06:38 82.90440 -56.49537 35550 ft 499 kts 104°
2026-04-25 06:38 82.88694 -55.95324 35553 ft 499 kts 105°
2026-04-25 06:39 82.86883 -55.41345 35550 ft 499 kts 105°
2026-04-25 06:39 82.85011 -54.87648 35550 ft 499 kts 106°
2026-04-25 06:40 82.83090 -54.34579 35547 ft 499 kts 106°
2026-04-25 06:40 82.81094 -53.81443 35548 ft 499 kts 107°
2026-04-25 06:41 82.79038 -53.28610 35545 ft 499 kts 107°
2026-04-25 06:41 82.76923 -52.76113 35546 ft 499 kts 108°
2026-04-25 06:42 82.74745 -52.23851 35543 ft 499 kts 108°
2026-04-25 06:42 82.72523 -51.72251 35545 ft 499 kts 109°
2026-04-25 06:43 82.70230 -51.20689 35541 ft 499 kts 109°
2026-04-25 06:43 82.67874 -50.69346 35539 ft 500 kts 110°
2026-04-25 06:44 82.65459 -50.18303 35538 ft 500 kts 110°
2026-04-25 06:44 82.63006 -49.67978 35541 ft 500 kts 111°
2026-04-25 06:45 82.60480 -49.17666 35541 ft 500 kts 111°
2026-04-25 06:45 82.57892 -48.67592 35538 ft 500 kts 112°
2026-04-25 06:46 82.55251 -48.17906 35551 ft 500 kts 112°
2026-04-25 06:46 82.52577 -47.68957 35535 ft 501 kts 113°
2026-04-25 06:47 82.49820 -47.19849 35534 ft 501 kts 114°
2026-04-25 06:47 82.47009 -46.71119 35532 ft 501 kts 114°
2026-04-25 06:48 82.44166 -46.23103 35534 ft 501 kts 115°
2026-04-25 06:48 82.41251 -45.75112 35532 ft 501 kts 115°
2026-04-25 06:49 82.38284 -45.27494 35530 ft 501 kts 116°
2026-04-25 06:49 82.35264 -44.80238 35532 ft 501 kts 116°
2026-04-25 06:50 82.32192 -44.33339 35519 ft 501 kts 116°
2026-04-25 06:50 82.29071 -43.86835 35518 ft 501 kts 117°
2026-04-25 06:51 82.25900 -43.40690 35515 ft 501 kts 117°
2026-04-25 06:51 82.22683 -42.94974 35516 ft 501 kts 118°
2026-04-25 06:52 82.19406 -42.49476 35513 ft 502 kts 118°
2026-04-25 06:52 82.16080 -42.04349 35526 ft 502 kts 119°
2026-04-25 06:53 82.12729 -41.59905 35521 ft 502 kts 119°
2026-04-25 06:53 82.09309 -41.15540 35515 ft 502 kts 120°
2026-04-25 06:54 82.05845 -40.71590 35499 ft 502 kts 120°
2026-04-25 06:54 82.02332 -40.27981 35497 ft 503 kts 121°
2026-04-25 06:55 81.99082 -39.83411 35500 ft 506 kts 115°
2026-04-25 06:55 81.96753 -39.44954 35484 ft 506 kts 114°
2026-04-25 06:56 81.94009 -38.98718 35487 ft 505 kts 114°
2026-04-25 06:56 81.90752 -38.45369 35487 ft 506 kts 114°
2026-04-25 06:57 81.88340 -38.07124 35493 ft 506 kts 115°
2026-04-25 06:57 81.85416 -37.61927 35484 ft 505 kts 115°
2026-04-25 06:58 81.82441 -37.17060 35488 ft 507 kts 116°
2026-04-25 06:58 81.79432 -36.72700 35487 ft 506 kts 116°
2026-04-25 06:59 81.76364 -36.28513 35488 ft 505 kts 116°
2026-04-25 06:59 81.73252 -35.84725 35491 ft 504 kts 117°
2026-04-25 07:00 81.70096 -35.41309 35492 ft 504 kts 117°
2026-04-25 07:00 81.66893 -34.98204 35495 ft 504 kts 118°
2026-04-25 07:01 81.63640 -34.55389 35494 ft 505 kts 118°
2026-04-25 07:01 81.60333 -34.12796 35490 ft 506 kts 119°
2026-04-25 07:02 81.56983 -33.70554 35480 ft 506 kts 119°
2026-04-25 07:02 81.53610 -33.28931 35481 ft 506 kts 120°
2026-04-25 07:03 81.50172 -32.87366 35483 ft 506 kts 120°
2026-04-25 07:03 81.46689 -32.46142 35483 ft 506 kts 120°
2026-04-25 07:04 81.43154 -32.05146 35483 ft 509 kts 121°
2026-04-25 07:04 81.39590 -31.64632 35481 ft 507 kts 121°
2026-04-25 07:05 81.35973 -31.24321 35481 ft 506 kts 122°
2026-04-25 07:05 81.32319 -30.84413 35481 ft 506 kts 122°
2026-04-25 07:06 81.28619 -30.44793 35481 ft 506 kts 122°
2026-04-25 07:06 81.24882 -30.05536 35482 ft 506 kts 123°
2026-04-25 07:07 81.21101 -29.66575 35478 ft 508 kts 123°
2026-04-25 07:07 81.17266 -29.27804 35479 ft 508 kts 123°
2026-04-25 07:08 81.13391 -28.89353 35479 ft 509 kts 124°
2026-04-25 07:08 81.09473 -28.51208 35479 ft 508 kts 124°
2026-04-25 07:09 81.05522 -28.13441 35482 ft 508 kts 125°
2026-04-25 07:09 81.01558 -27.76240 35482 ft 508 kts 125°
2026-04-25 07:10 80.97527 -27.39094 35481 ft 508 kts 126°
2026-04-25 07:10 80.93462 -27.02293 35479 ft 508 kts 126°
2026-04-25 07:11 80.89363 -26.65852 35480 ft 508 kts 126°
2026-04-25 07:11 80.85227 -26.29717 35481 ft 508 kts 127°
2026-04-25 07:12 80.81085 -25.94163 35483 ft 508 kts 127°
2026-04-25 07:12 80.74764 -25.41071 35479 ft 509 kts 128°
2026-04-25 07:13 80.70499 -25.06005 35479 ft 510 kts 128°
2026-04-25 07:13 80.66188 -24.71159 35474 ft 511 kts 128°
2026-04-25 07:14 80.61845 -24.36645 35474 ft 510 kts 129°
2026-04-25 07:14 80.57467 -24.02431 35472 ft 510 kts 129°
2026-04-25 07:15 80.53062 -23.68579 35473 ft 510 kts 129°
2026-04-25 07:15 80.48614 -23.34958 35467 ft 510 kts 130°
2026-04-25 07:16 80.44163 -23.01862 35469 ft 512 kts 130°
2026-04-25 07:16 80.39650 -22.68839 35466 ft 512 kts 130°
2026-04-25 07:17 80.35102 -22.36097 35468 ft 512 kts 130°
2026-04-25 07:17 80.30526 -22.03683 35467 ft 512 kts 131°
2026-04-25 07:18 80.25920 -21.71572 35468 ft 512 kts 131°
2026-04-25 07:18 80.21276 -21.39701 35464 ft 513 kts 131°
2026-04-25 07:19 80.16590 -21.08045 35473 ft 514 kts 132°
2026-04-25 07:19 80.11868 -20.76638 35471 ft 515 kts 132°
2026-04-25 07:20 80.07119 -20.45549 35463 ft 514 kts 133°
2026-04-25 07:20 80.02344 -20.14764 35467 ft 514 kts 133°
2026-04-25 07:21 79.97581 -19.84045 35469 ft 514 kts 131°
2026-04-25 07:21 79.93091 -19.52470 35467 ft 514 kts 129°
2026-04-25 07:22 79.88593 -19.20709 35461 ft 515 kts 130°
2026-04-25 07:22 79.84050 -18.89576 35463 ft 515 kts 130°
2026-04-25 07:23 79.79425 -18.58664 35461 ft 515 kts 131°
2026-04-25 07:23 79.74768 -18.28085 35459 ft 515 kts 131°
2026-04-25 07:24 79.70114 -17.97969 35459 ft 515 kts 131°
2026-04-25 07:24 79.65405 -17.67928 35461 ft 516 kts 132°
2026-04-25 07:25 79.60641 -17.37985 35457 ft 517 kts 132°
2026-04-25 07:25 79.55854 -17.08335 35457 ft 517 kts 133°
2026-04-25 07:26 79.51036 -16.78938 35459 ft 517 kts 133°
2026-04-25 07:26 79.46197 -16.49835 35466 ft 516 kts 133°
2026-04-25 07:27 79.41343 -16.21067 35466 ft 515 kts 133°
2026-04-25 07:27 79.36463 -15.92558 35461 ft 517 kts 134°
2026-04-25 07:28 79.31538 -15.64197 35460 ft 518 kts 134°
2026-04-25 07:28 79.26582 -15.36057 35463 ft 518 kts 134°
2026-04-25 07:29 79.21601 -15.08179 35459 ft 518 kts 134°
2026-04-25 07:29 79.16592 -14.80534 35460 ft 518 kts 135°
2026-04-25 07:30 79.11560 -14.53149 35463 ft 518 kts 135°
2026-04-25 07:30 79.06507 -14.26032 35461 ft 519 kts 135°
2026-04-25 07:31 79.01440 -13.99209 35462 ft 520 kts 136°
2026-04-25 07:31 78.96315 -13.72452 35460 ft 520 kts 136°
2026-04-25 07:32 78.91179 -13.46002 35463 ft 519 kts 136°
2026-04-25 07:32 78.86027 -13.19829 35460 ft 518 kts 136°
2026-04-25 07:33 78.80849 -12.93879 35457 ft 519 kts 136°
2026-04-25 07:33 78.75632 -12.68080 35554 ft 523 kts 137°
2026-04-25 07:34 78.73012 -12.55256 35856 ft 521 kts 137°
2026-04-25 07:34 78.70388 -12.42493 36176 ft 520 kts 137°
2026-04-25 07:34 78.67770 -12.29842 36437 ft 519 kts 137°
2026-04-25 07:34 78.65144 -12.17239 36675 ft 519 kts 137°
2026-04-25 07:35 78.62512 -12.04692 36924 ft 519 kts 137°
2026-04-25 07:35 78.59872 -11.92188 37146 ft 519 kts 137°
2026-04-25 07:35 78.57229 -11.79756 37368 ft 519 kts 137°
2026-04-25 07:35 78.54581 -11.67377 37603 ft 519 kts 138°
2026-04-25 07:36 78.51928 -11.55056 37813 ft 519 kts 138°
2026-04-25 07:36 78.49272 -11.42800 38027 ft 519 kts 138°
2026-04-25 07:36 78.46646 -11.30760 38227 ft 519 kts 138°
2026-04-25 07:36 78.43976 -11.18599 38349 ft 520 kts 138°
2026-04-25 07:37 78.41296 -11.06469 38492 ft 521 kts 138°
2026-04-25 07:37 78.38604 -10.94364 38698 ft 521 kts 138°
2026-04-25 07:37 78.35913 -10.82339 38899 ft 521 kts 138°
2026-04-25 07:37 78.33218 -10.70377 39081 ft 521 kts 139°
2026-04-25 07:38 78.30516 -10.58458 39228 ft 520 kts 139°
2026-04-25 07:38 78.27814 -10.46614 39370 ft 520 kts 139°
2026-04-25 07:38 78.22392 -10.23074 39425 ft 521 kts 139°
2026-04-25 07:39 78.16941 -9.99704 39425 ft 520 kts 139°
2026-04-25 07:39 78.11480 -9.76585 39425 ft 520 kts 140°
2026-04-25 07:40 78.06040 -9.53838 39421 ft 520 kts 140°
2026-04-25 07:40 78.00538 -9.31117 39407 ft 520 kts 140°
2026-04-25 07:41 77.95029 -9.08641 39408 ft 520 kts 140°
2026-04-25 07:41 77.89492 -8.86329 39416 ft 520 kts 140°
2026-04-25 07:42 77.83943 -8.64243 39406 ft 520 kts 140°
2026-04-25 07:42 77.78371 -8.42328 39395 ft 521 kts 141°
2026-04-25 07:43 77.72766 -8.20554 39391 ft 522 kts 141°
2026-04-25 07:43 77.67144 -7.98968 39389 ft 522 kts 141°
2026-04-25 07:44 77.61540 -7.77713 39390 ft 522 kts 141°
2026-04-25 07:44 77.55884 -7.56508 39375 ft 522 kts 141°
2026-04-25 07:45 77.50211 -7.35496 39374 ft 522 kts 142°
2026-04-25 07:45 77.44525 -7.14679 39373 ft 523 kts 142°
2026-04-25 07:46 77.38835 -6.94090 39374 ft 524 kts 142°
2026-04-25 07:46 77.33093 -6.73551 39367 ft 525 kts 142°
2026-04-25 07:47 77.28277 -6.56510 39358 ft 530 kts 142°
2026-04-25 07:47 77.22453 -6.36121 39357 ft 528 kts 142°
2026-04-25 07:48 77.16618 -6.15933 39358 ft 531 kts 143°
2026-04-25 07:48 77.10753 -5.95870 39341 ft 528 kts 143°
2026-04-25 07:49 77.04884 -5.76028 39343 ft 527 kts 143°
2026-04-25 07:49 76.99036 -5.56477 39344 ft 526 kts 143°
2026-04-25 07:50 76.93168 -5.37082 39343 ft 526 kts 143°
2026-04-25 07:50 76.87321 -5.17974 39329 ft 528 kts 144°
2026-04-25 07:51 76.81392 -4.98812 39383 ft 530 kts 144°
2026-04-25 07:51 76.75392 -4.79639 39496 ft 535 kts 144°
2026-04-25 07:52 76.72388 -4.70118 39636 ft 534 kts 144°
2026-04-25 07:52 76.69382 -4.60647 39797 ft 533 kts 144°
2026-04-25 07:52 76.66382 -4.51247 39967 ft 531 kts 144°
2026-04-25 07:52 76.63402 -4.41960 40258 ft 526 kts 144°
2026-04-25 07:53 76.57428 -4.23500 40322 ft 531 kts 144°
2026-04-25 07:53 76.51411 -4.05110 40684 ft 525 kts 144°
2026-04-25 07:54 76.48452 -3.96137 40928 ft 522 kts 145°
2026-04-25 07:54 76.45471 -3.87149 40847 ft 526 kts 145°
2026-04-25 07:54 76.39482 -3.69235 40602 ft 536 kts 145°
2026-04-25 07:55 76.33377 -3.51174 40775 ft 535 kts 145°
2026-04-25 07:55 76.30328 -3.42223 41071 ft 529 kts 145°
2026-04-25 07:55 76.27312 -3.33419 41262 ft 526 kts 146°
2026-04-25 07:56 76.21294 -3.15993 41285 ft 525 kts 146°
2026-04-25 07:56 76.15245 -2.98663 41268 ft 529 kts 146°
2026-04-25 07:57 76.09144 -2.81364 41257 ft 529 kts 146°
2026-04-25 07:57 76.03063 -2.64307 41262 ft 526 kts 146°
2026-04-25 07:58 75.96976 -2.47414 41262 ft 529 kts 146°
2026-04-25 07:58 75.90878 -2.30659 41237 ft 532 kts 146°
2026-04-25 07:59 75.84730 -2.13942 41238 ft 528 kts 146°
2026-04-25 07:59 75.78590 -1.97423 41244 ft 530 kts 147°
2026-04-25 08:00 75.72418 -1.80985 41239 ft 532 kts 147°
2026-04-25 08:00 75.66192 -1.64574 41223 ft 536 kts 147°
2026-04-25 08:01 75.59925 -1.48225 41214 ft 536 kts 147°
2026-04-25 08:01 75.53683 -1.32107 41215 ft 531 kts 147°
2026-04-25 08:02 75.47467 -1.16222 41196 ft 529 kts 147°
2026-04-25 08:02 75.41251 -1.00493 41184 ft 531 kts 148°
2026-04-25 08:03 75.35031 -0.84911 41186 ft 533 kts 148°
2026-04-25 08:03 75.28774 -0.69393 41195 ft 529 kts 148°
2026-04-25 08:04 75.22543 -0.54092 41190 ft 528 kts 148°
2026-04-25 08:04 75.16289 -0.38885 41195 ft 530 kts 148°
2026-04-25 08:05 75.10017 -0.23783 41195 ft 531 kts 148°
2026-04-25 08:05 75.03705 -0.08734 41182 ft 532 kts 149°
2026-04-25 08:06 74.97182 0.04631 41172 ft 531 kts 156°
2026-04-25 08:06 74.90394 0.15928 41172 ft 533 kts 158°
2026-04-25 08:07 74.83601 0.26753 41172 ft 533 kts 158°
2026-04-25 08:07 74.76724 0.37640 41168 ft 529 kts 158°
2026-04-25 08:08 74.69968 0.48302 41173 ft 531 kts 158°
2026-04-25 08:08 74.63131 0.59018 41155 ft 533 kts 158°
2026-04-25 08:09 74.56278 0.69660 41152 ft 532 kts 158°
2026-04-25 08:09 74.49432 0.80192 41152 ft 531 kts 158°
2026-04-25 08:10 74.42604 0.90597 41162 ft 531 kts 158°
2026-04-25 08:10 74.35754 1.00936 41155 ft 532 kts 159°
2026-04-25 08:11 74.28868 1.11233 41132 ft 533 kts 159°
2026-04-25 08:11 74.21996 1.21415 41135 ft 532 kts 159°
2026-04-25 08:12 74.15136 1.31489 41139 ft 531 kts 159°
2026-04-25 08:12 74.08268 1.41485 41140 ft 532 kts 159°
2026-04-25 08:13 74.01365 1.51436 41140 ft 534 kts 159°
2026-04-25 08:14 73.91054 1.66136 41119 ft 532 kts 159°
2026-04-25 08:14 73.84164 1.75848 41120 ft 533 kts 159°
2026-04-25 08:15 73.77248 1.85510 41121 ft 534 kts 159°
2026-04-25 08:15 73.70312 1.95112 41120 ft 534 kts 159°
2026-04-25 08:16 73.63388 2.04617 41108 ft 533 kts 159°
2026-04-25 08:16 73.56461 2.14042 41104 ft 533 kts 160°
2026-04-25 08:17 73.49523 2.23397 41097 ft 534 kts 160°
2026-04-25 08:17 73.42555 2.32710 41100 ft 536 kts 160°
2026-04-25 08:18 73.35588 2.41939 41102 ft 534 kts 160°
2026-04-25 08:18 73.28646 2.51058 41099 ft 533 kts 160°
2026-04-25 08:19 73.21677 2.60135 41089 ft 535 kts 160°
2026-04-25 08:19 73.14725 2.69109 41085 ft 538 kts 160°
2026-04-25 08:20 73.07670 2.78139 41087 ft 537 kts 160°
2026-04-25 08:20 73.00744 2.86930 41088 ft 534 kts 160°
2026-04-25 08:21 72.93796 2.95672 41085 ft 535 kts 160°
2026-04-25 08:21 72.86779 3.04427 41065 ft 538 kts 160°
2026-04-25 08:22 72.79741 3.13131 41065 ft 538 kts 160°
2026-04-25 08:22 72.72723 3.21742 41064 ft 536 kts 160°
2026-04-25 08:23 72.65704 3.30281 41065 ft 537 kts 161°
2026-04-25 08:23 72.58659 3.38781 41066 ft 540 kts 161°
2026-04-25 08:24 72.51600 3.47224 41056 ft 539 kts 161°
2026-04-25 08:24 72.44567 3.55568 41042 ft 537 kts 161°
2026-04-25 08:25 72.37566 3.63806 41057 ft 538 kts 161°
2026-04-25 08:25 72.30492 3.72062 41051 ft 540 kts 161°
2026-04-25 08:26 72.23423 3.80243 41045 ft 538 kts 161°
2026-04-25 08:26 72.16373 3.88337 41027 ft 536 kts 161°
2026-04-25 08:27 72.09313 3.96378 41025 ft 538 kts 161°
2026-04-25 08:27 72.02234 4.04377 41031 ft 540 kts 161°
2026-04-25 08:28 71.95141 4.12324 41031 ft 539 kts 161°
2026-04-25 08:28 71.88118 4.20131 41027 ft 536 kts 161°
2026-04-25 08:29 71.81044 4.27931 41020 ft 538 kts 161°
2026-04-25 08:29 71.73939 4.35702 41005 ft 541 kts 161°
2026-04-25 08:30 71.66816 4.43432 41005 ft 540 kts 161°
2026-04-25 08:30 71.59722 4.51071 41004 ft 538 kts 162°
2026-04-25 08:31 71.52631 4.58647 41035 ft 539 kts 161°
2026-04-25 08:31 71.45508 4.66197 41000 ft 541 kts 162°
2026-04-25 08:32 71.38423 4.73648 41003 ft 540 kts 162°
2026-04-25 08:32 71.31318 4.81062 41002 ft 538 kts 162°
2026-04-25 08:33 71.24226 4.88406 41003 ft 539 kts 162°
2026-04-25 08:33 71.17070 4.95759 40981 ft 541 kts 162°
2026-04-25 08:34 71.09931 5.03038 40983 ft 539 kts 162°
2026-04-25 08:34 71.02817 5.10238 40983 ft 538 kts 162°
2026-04-25 08:35 70.95690 5.17394 40983 ft 540 kts 162°
2026-04-25 08:35 70.88539 5.24520 40983 ft 541 kts 162°
2026-04-25 08:36 70.81389 5.31592 40962 ft 539 kts 162°
2026-04-25 08:36 70.74266 5.38585 40972 ft 539 kts 162°
2026-04-25 08:37 70.67120 5.45546 40993 ft 540 kts 162°
2026-04-25 08:37 70.59938 5.52491 40969 ft 542 kts 162°
2026-04-25 08:38 70.52767 5.59375 40967 ft 539 kts 162°
2026-04-25 08:38 70.46840 5.65026 40953 ft 538 kts 163°
2026-04-25 08:39 70.39683 5.71803 40957 ft 541 kts 163°
2026-04-25 08:39 70.32486 5.78567 40951 ft 542 kts 163°
2026-04-25 08:40 70.25300 5.85272 40955 ft 541 kts 163°
2026-04-25 08:40 70.18130 5.91914 40958 ft 540 kts 163°
2026-04-25 08:41 70.10940 5.98525 40941 ft 543 kts 163°
2026-04-25 08:41 70.03723 6.05112 40941 ft 543 kts 163°
2026-04-25 08:42 69.96513 6.11646 40936 ft 541 kts 163°
2026-04-25 08:42 69.89379 6.18065 40947 ft 541 kts 163°
2026-04-25 08:43 69.82177 6.24498 40946 ft 543 kts 163°
2026-04-25 08:43 69.74955 6.30903 40905 ft 542 kts 163°
2026-04-25 08:44 69.67760 6.37241 40929 ft 539 kts 163°
2026-04-25 08:44 69.60562 6.43535 40923 ft 542 kts 163°
2026-04-25 08:45 69.53322 6.49820 40941 ft 544 kts 163°
2026-04-25 08:45 69.46078 6.56065 40909 ft 543 kts 163°
2026-04-25 08:46 69.38878 6.62229 40915 ft 539 kts 164°
2026-04-25 08:46 69.31663 6.68361 40914 ft 543 kts 164°
2026-04-25 08:47 69.24412 6.74481 40917 ft 546 kts 164°
2026-04-25 08:47 69.17148 6.80571 40913 ft 542 kts 164°
2026-04-25 08:48 69.09972 6.86546 40905 ft 542 kts 164°
2026-04-25 08:48 69.02731 6.92533 40901 ft 543 kts 164°
2026-04-25 08:49 68.95473 6.98491 40930 ft 544 kts 164°
2026-04-25 08:49 68.88214 7.04411 40910 ft 540 kts 164°
2026-04-25 08:50 68.81012 7.10245 40905 ft 541 kts 164°
2026-04-25 08:50 68.73764 7.16075 40888 ft 544 kts 164°
2026-04-25 08:51 68.66502 7.21877 40900 ft 542 kts 164°
2026-04-25 08:51 68.59269 7.27618 40895 ft 540 kts 164°
2026-04-25 08:52 68.52046 7.33314 40899 ft 541 kts 165°
2026-04-25 08:52 68.44834 7.38961 40888 ft 545 kts 165°
2026-04-25 08:53 68.37554 7.44624 40893 ft 543 kts 165°
2026-04-25 08:53 68.30310 7.50223 40886 ft 541 kts 165°
2026-04-25 08:54 68.23067 7.55783 40890 ft 542 kts 165°
2026-04-25 08:54 68.15791 7.61331 40889 ft 543 kts 165°
2026-04-25 08:55 68.08525 7.66836 40882 ft 540 kts 165°
2026-04-25 08:55 68.01390 7.72208 40883 ft 538 kts 165°
2026-04-25 08:56 67.94121 7.77643 40882 ft 541 kts 165°
2026-04-25 08:56 67.86857 7.83040 40885 ft 542 kts 165°
2026-04-25 08:57 67.79648 7.88362 40885 ft 539 kts 165°
2026-04-25 08:57 67.72411 7.93672 40874 ft 540 kts 165°
2026-04-25 08:58 67.65163 7.98954 40875 ft 543 kts 165°
2026-04-25 08:58 67.57882 8.04226 40879 ft 542 kts 165°
2026-04-25 08:59 67.50627 8.09447 40876 ft 539 kts 165°
2026-04-25 08:59 67.43376 8.14631 40863 ft 541 kts 165°
2026-04-25 09:00 67.36098 8.19801 40864 ft 543 kts 165°
2026-04-25 09:00 67.28823 8.24938 40866 ft 541 kts 165°
2026-04-25 09:01 67.21571 8.30027 40868 ft 540 kts 165°
2026-04-25 09:01 67.14319 8.35083 40875 ft 541 kts 165°
2026-04-25 09:02 67.07092 8.40091 40858 ft 541 kts 166°
2026-04-25 09:02 66.99827 8.45094 40864 ft 539 kts 165°
2026-04-25 09:03 66.92591 8.50047 40868 ft 539 kts 166°
2026-04-25 09:03 66.85337 8.54981 40868 ft 540 kts 166°
2026-04-25 09:04 66.78065 8.59897 40872 ft 540 kts 166°
2026-04-25 09:04 66.70798 8.64672 40871 ft 539 kts 167°
2026-04-25 09:05 66.63525 8.69214 40861 ft 539 kts 167°
2026-04-25 09:05 66.56287 8.73705 40872 ft 539 kts 167°
2026-04-25 09:06 66.49014 8.78226 40880 ft 538 kts 167°
2026-04-25 09:06 66.41751 8.82730 40881 ft 537 kts 167°
2026-04-25 09:07 66.34495 8.87205 40877 ft 537 kts 167°
2026-04-25 09:07 66.27235 8.91655 40875 ft 537 kts 167°
2026-04-25 09:08 66.19980 8.96075 40878 ft 536 kts 167°
2026-04-25 09:08 66.12733 9.00463 40879 ft 536 kts 167°
2026-04-25 09:09 66.05480 9.04829 40895 ft 537 kts 167°
2026-04-25 09:09 65.98217 9.09176 40883 ft 536 kts 167°
2026-04-25 09:10 65.91009 9.13465 40886 ft 537 kts 167°
2026-04-25 09:10 65.83752 9.17758 40889 ft 537 kts 167°
2026-04-25 09:11 65.72868 9.24150 40888 ft 537 kts 167°
2026-04-25 09:11 65.65606 9.28384 40894 ft 537 kts 167°
2026-04-25 09:12 65.58343 9.32594 40897 ft 536 kts 167°
2026-04-25 09:12 65.51086 9.36777 40899 ft 536 kts 167°
2026-04-25 09:13 65.43835 9.40933 40892 ft 535 kts 167°
2026-04-25 09:13 65.36585 9.45064 40894 ft 535 kts 167°
2026-04-25 09:14 65.29330 9.49175 40903 ft 536 kts 168°
2026-04-25 09:14 65.22068 9.53266 40901 ft 536 kts 168°
2026-04-25 09:15 65.14802 9.57337 40903 ft 536 kts 168°
2026-04-25 09:15 65.07537 9.61384 40893 ft 536 kts 168°
2026-04-25 09:16 65.00267 9.65411 40900 ft 536 kts 168°
2026-04-25 09:16 64.92995 9.69418 40897 ft 537 kts 168°
2026-04-25 09:17 64.82080 9.75389 40897 ft 537 kts 168°
2026-04-25 09:18 64.74846 9.79319 40906 ft 537 kts 168°
2026-04-25 09:18 64.67581 9.83245 40897 ft 535 kts 168°
2026-04-25 09:19 64.60319 9.87148 40897 ft 535 kts 168°
2026-04-25 09:19 64.53053 9.91030 40898 ft 535 kts 168°
2026-04-25 09:20 64.45785 9.94893 40897 ft 536 kts 168°
2026-04-25 09:20 64.38521 9.98732 40886 ft 536 kts 168°
2026-04-25 09:21 64.31254 10.02553 40886 ft 536 kts 168°
2026-04-25 09:21 64.23979 10.06357 40891 ft 536 kts 168°
2026-04-25 09:22 64.16710 10.10138 40889 ft 536 kts 168°
2026-04-25 09:22 64.09481 10.13877 40884 ft 536 kts 168°
2026-04-25 09:23 64.02215 10.17616 40885 ft 536 kts 168°
2026-04-25 09:23 63.94948 10.21336 40905 ft 536 kts 168°
2026-04-25 09:24 63.87662 10.25046 40890 ft 534 kts 168°
2026-04-25 09:24 63.80417 10.28715 40893 ft 533 kts 168°
2026-04-25 09:25 63.73177 10.32361 40882 ft 533 kts 168°
2026-04-25 09:25 63.65938 10.35989 40867 ft 533 kts 169°
2026-04-25 09:26 63.58691 10.39602 40886 ft 533 kts 169°
2026-04-25 09:26 63.51496 10.43170 40886 ft 533 kts 169°
2026-04-25 09:27 63.44247 10.46745 40879 ft 533 kts 169°
2026-04-25 09:27 63.37001 10.50302 40877 ft 533 kts 169°
2026-04-25 09:28 63.29746 10.53846 40882 ft 533 kts 169°
2026-04-25 09:28 63.22491 10.57369 40883 ft 533 kts 169°
2026-04-25 09:29 63.15226 10.60879 40884 ft 534 kts 169°
2026-04-25 09:29 63.08020 10.64345 40876 ft 533 kts 169°
2026-04-25 09:30 63.00774 10.67812 40877 ft 533 kts 169°
2026-04-25 09:30 62.93512 10.71267 40880 ft 535 kts 169°
2026-04-25 09:31 62.86230 10.74714 40878 ft 535 kts 169°
2026-04-25 09:31 62.80187 10.77563 40864 ft 535 kts 169°
2026-04-25 09:32 62.72910 10.80978 40866 ft 535 kts 169°
2026-04-25 09:32 62.65629 10.84377 40865 ft 536 kts 169°
2026-04-25 09:33 62.58336 10.87764 40860 ft 536 kts 169°
2026-04-25 09:33 62.51036 10.91139 40861 ft 536 kts 169°
2026-04-25 09:34 62.43733 10.94497 40841 ft 536 kts 169°
2026-04-25 09:34 62.36438 10.97835 40830 ft 536 kts 169°
2026-04-25 09:35 62.29195 11.01132 40840 ft 535 kts 169°
2026-04-25 09:35 62.21916 11.04428 40836 ft 535 kts 169°
2026-04-25 09:36 62.14637 11.07709 40824 ft 534 kts 169°
2026-04-25 09:36 62.07402 11.10956 40786 ft 533 kts 169°
2026-04-25 09:37 62.00121 11.14206 40815 ft 534 kts 170°
2026-04-25 09:37 61.92852 11.17434 40813 ft 533 kts 169°
2026-04-25 09:38 61.85593 11.20643 40813 ft 533 kts 170°
2026-04-25 09:38 61.78339 11.23835 40798 ft 533 kts 170°
2026-04-25 09:39 61.71074 11.27016 40797 ft 533 kts 170°
2026-04-25 09:39 61.63809 11.30182 40796 ft 533 kts 170°
2026-04-25 09:40 61.52961 11.34881 40797 ft 533 kts 170°
2026-04-25 09:40 61.47339 11.37303 40791 ft 531 kts 170°
2026-04-25 09:41 61.42032 11.39582 40785 ft 529 kts 170°
2026-04-25 09:41 61.34823 11.42662 40781 ft 528 kts 170°
2026-04-25 09:42 61.27623 11.45724 40777 ft 528 kts 170°
2026-04-25 09:42 61.20418 11.48776 40780 ft 528 kts 170°
2026-04-25 09:43 61.13207 11.51816 40776 ft 528 kts 170°
2026-04-25 09:43 61.06000 11.54840 40769 ft 528 kts 171°
2026-04-25 09:44 60.98788 11.57852 40772 ft 528 kts 171°
2026-04-25 09:44 60.91582 11.60847 40773 ft 528 kts 171°
2026-04-25 09:45 60.84376 11.63829 40748 ft 528 kts 171°
2026-04-25 09:45 60.77209 11.66782 40755 ft 529 kts 171°
2026-04-25 09:46 60.69998 11.69739 40747 ft 527 kts 171°
2026-04-25 09:46 60.62820 11.72669 40752 ft 526 kts 171°
2026-04-25 09:47 60.55647 11.75583 40735 ft 525 kts 171°
2026-04-25 09:47 60.48475 11.78483 40728 ft 526 kts 171°
2026-04-25 09:48 60.41294 11.81374 40734 ft 526 kts 171°
2026-04-25 09:48 60.34111 11.84253 40735 ft 526 kts 171°
2026-04-25 09:49 60.26932 11.87118 40722 ft 526 kts 171°
2026-04-25 09:49 60.19745 11.89973 40706 ft 526 kts 171°
2026-04-25 09:50 60.12561 11.92814 40721 ft 526 kts 171°
2026-04-25 09:50 60.05374 11.95644 40723 ft 526 kts 171°
2026-04-25 09:51 59.98179 11.98465 40724 ft 526 kts 171°
2026-04-25 09:51 59.91041 12.01243 40689 ft 525 kts 172°
2026-04-25 09:52 59.83808 12.02703 40718 ft 522 kts 179°
2026-04-25 09:52 59.76557 12.03641 40719 ft 522 kts 180°
2026-04-25 09:53 59.69304 12.04496 40725 ft 522 kts 180°
2026-04-25 09:53 59.62045 12.05366 40721 ft 522 kts 179°
2026-04-25 09:54 59.54810 12.06252 40716 ft 520 kts 180°
2026-04-25 09:54 59.47586 12.07137 40720 ft 519 kts 180°
2026-04-25 09:55 59.40377 12.08017 40721 ft 519 kts 180°
2026-04-25 09:55 59.33164 12.08893 40722 ft 519 kts 180°
2026-04-25 09:56 59.25945 12.09766 40726 ft 519 kts 180°
2026-04-25 09:56 59.18727 12.10635 40727 ft 519 kts 180°
2026-04-25 09:57 59.11512 12.11500 40718 ft 519 kts 180°
2026-04-25 09:57 59.04349 12.12355 40719 ft 519 kts 180°
2026-04-25 09:58 58.97127 12.13213 40720 ft 522 kts 180°
2026-04-25 09:58 58.89865 12.14070 40720 ft 523 kts 180°
2026-04-25 09:59 58.82599 12.14927 40722 ft 523 kts 180°
2026-04-25 09:59 58.75331 12.15782 40722 ft 523 kts 180°
2026-04-25 10:00 58.68051 12.16633 40715 ft 524 kts 180°
2026-04-25 10:00 58.60768 12.17480 40715 ft 525 kts 180°
2026-04-25 10:01 58.53475 12.18326 40717 ft 525 kts 180°
2026-04-25 10:01 58.46184 12.19168 40717 ft 525 kts 180°
2026-04-25 10:02 58.38893 12.20006 40712 ft 526 kts 180°
2026-04-25 10:02 58.31594 12.20840 40724 ft 526 kts 180°
2026-04-25 10:03 58.24331 12.21669 40723 ft 526 kts 180°
2026-04-25 10:03 58.17023 12.22499 40717 ft 526 kts 180°
2026-04-25 10:04 58.09715 12.23325 40726 ft 526 kts 180°
2026-04-25 10:04 58.02410 12.24149 40717 ft 526 kts 180°
2026-04-25 10:05 57.95099 12.24968 40736 ft 526 kts 180°
2026-04-25 10:05 57.87783 12.25784 40715 ft 526 kts 180°
2026-04-25 10:06 57.80511 12.26596 40742 ft 522 kts 180°
2026-04-25 10:06 57.73265 12.27399 40626 ft 521 kts 180°
2026-04-25 10:07 57.69662 12.27797 40054 ft 520 kts 180°
2026-04-25 10:07 57.66038 12.28194 39263 ft 523 kts 180°
2026-04-25 10:07 57.62613 12.28567 38513 ft 527 kts 179°
2026-04-25 10:07 57.58724 12.28993 37484 ft 531 kts 180°
2026-04-25 10:08 57.55036 12.29401 36763 ft 530 kts 181°
2026-04-25 10:08 57.51385 12.29806 36087 ft 529 kts 181°
2026-04-25 10:08 57.47691 12.30214 35368 ft 528 kts 182°
2026-04-25 10:08 57.44030 12.30616 34648 ft 529 kts 183°
2026-04-25 10:09 57.40389 12.31011 33834 ft 531 kts 184°
2026-04-25 10:09 57.36691 12.31409 32882 ft 533 kts 185°
2026-04-25 10:09 57.32989 12.31809 32004 ft 533 kts 185°
2026-04-25 10:09 57.29284 12.32211 31107 ft 532 kts 186°
2026-04-25 10:10 57.25590 12.32612 30219 ft 532 kts 186°
2026-04-25 10:10 57.21889 12.33009 29224 ft 532 kts 187°
2026-04-25 10:10 57.18199 12.33403 28356 ft 530 kts 187°
2026-04-25 10:10 57.14542 12.33802 27683 ft 523 kts 187°
2026-04-25 10:11 57.10930 12.34258 27078 ft 519 kts 185°
2026-04-25 10:11 57.07346 12.35028 26437 ft 518 kts 182°
2026-04-25 10:11 57.03781 12.35984 25681 ft 515 kts 181°
2026-04-25 10:11 57.00258 12.36984 25081 ft 510 kts 180°
2026-04-25 10:12 56.96758 12.37966 24437 ft 506 kts 181°
2026-04-25 10:12 56.93290 12.38902 23787 ft 502 kts 181°
2026-04-25 10:12 56.86436 12.40650 22396 ft 492 kts 181°
2026-04-25 10:13 56.83065 12.41483 21742 ft 486 kts 181°
2026-04-25 10:13 56.79736 12.42299 21115 ft 480 kts 181°
2026-04-25 10:13 56.76494 12.43090 20481 ft 474 kts 181°
2026-04-25 10:13 56.73249 12.43879 19813 ft 467 kts 181°
2026-04-25 10:14 56.70041 12.44661 19189 ft 462 kts 181°
2026-04-25 10:14 56.66872 12.45429 18567 ft 457 kts 181°
2026-04-25 10:14 56.63730 12.46189 17906 ft 453 kts 181°
2026-04-25 10:14 56.60621 12.46941 17226 ft 448 kts 181°
2026-04-25 10:15 56.57550 12.47685 16575 ft 442 kts 180°
2026-04-25 10:15 56.54521 12.48419 15936 ft 437 kts 180°
2026-04-25 10:15 56.51521 12.49144 15284 ft 432 kts 180°
2026-04-25 10:15 56.48561 12.49857 14670 ft 428 kts 180°
2026-04-25 10:16 56.45624 12.50561 14017 ft 423 kts 180°
2026-04-25 10:16 56.42718 12.51258 13374 ft 420 kts 180°
2026-04-25 10:16 56.39843 12.51946 12738 ft 415 kts 180°
2026-04-25 10:16 56.37027 12.52624 12537 ft 399 kts 180°
2026-04-25 10:17 56.34340 12.53276 12409 ft 381 kts 180°
2026-04-25 10:17 56.31774 12.53895 12292 ft 364 kts 181°
2026-04-25 10:17 56.29317 12.54483 12183 ft 349 kts 181°
2026-04-25 10:17 56.26954 12.55046 12022 ft 335 kts 181°
2026-04-25 10:18 56.24686 12.55585 11895 ft 322 kts 182°
2026-04-25 10:18 56.22489 12.56102 11648 ft 316 kts 182°
2026-04-25 10:18 56.20338 12.56794 11519 ft 317 kts 173°
2026-04-25 10:18 56.18183 12.58187 11414 ft 335 kts 165°
2026-04-25 10:19 56.16032 12.59847 11250 ft 337 kts 163°
2026-04-25 10:19 56.13928 12.61538 11016 ft 335 kts 162°
2026-04-25 10:19 56.11780 12.63284 10721 ft 334 kts 163°
2026-04-25 10:19 56.09697 12.64980 10432 ft 333 kts 162°
2026-04-25 10:20 56.07590 12.66697 10148 ft 331 kts 162°
2026-04-25 10:20 56.05496 12.68402 9848 ft 330 kts 163°
2026-04-25 10:20 56.03414 12.70096 9551 ft 328 kts 162°
2026-04-25 10:20 56.01341 12.71782 9230 ft 326 kts 162°
2026-04-25 10:21 55.99281 12.73457 8915 ft 323 kts 162°
2026-04-25 10:21 55.97931 12.74554 8704 ft 321 kts 162°
2026-04-25 10:21 55.95903 12.76199 8421 ft 318 kts 162°
2026-04-25 10:21 55.93894 12.77828 8154 ft 316 kts 162°
2026-04-25 10:22 55.91894 12.79445 7901 ft 314 kts 162°
2026-04-25 10:22 55.89919 12.81040 7608 ft 313 kts 162°
2026-04-25 10:22 55.87928 12.82648 7350 ft 313 kts 161°
2026-04-25 10:22 55.85949 12.84244 7135 ft 312 kts 161°
2026-04-25 10:23 55.83971 12.85839 6929 ft 311 kts 161°
2026-04-25 10:23 55.82011 12.87417 6676 ft 309 kts 161°
2026-04-25 10:23 55.80054 12.88991 6462 ft 307 kts 161°
2026-04-25 10:23 55.78114 12.90549 6209 ft 305 kts 161°
2026-04-25 10:24 55.76183 12.92097 5935 ft 304 kts 161°
2026-04-25 10:24 55.74264 12.93635 5686 ft 301 kts 160°
2026-04-25 10:24 55.72363 12.95158 5424 ft 298 kts 160°
2026-04-25 10:24 55.70481 12.96664 5170 ft 295 kts 160°
2026-04-25 10:25 55.68620 12.98150 4915 ft 292 kts 160°
2026-04-25 10:25 55.66769 12.99626 4671 ft 290 kts 160°
2026-04-25 10:25 55.64933 13.01088 4410 ft 287 kts 160°
2026-04-25 10:25 55.63136 13.02523 4144 ft 280 kts 160°
2026-04-25 10:26 55.61406 13.03902 3907 ft 274 kts 160°
2026-04-25 10:26 55.59690 13.05266 3679 ft 267 kts 160°
2026-04-25 10:26 55.58027 13.06606 3523 ft 258 kts 158°
2026-04-25 10:26 55.56355 13.07551 3369 ft 249 kts 181°
2026-04-25 10:27 55.54713 13.07109 3228 ft 234 kts 208°
2026-04-25 10:27 55.53312 13.05990 3056 ft 231 kts 214°
2026-04-25 10:27 55.51822 13.04640 2984 ft 231 kts 215°
2026-04-25 10:27 55.50503 13.03117 2970 ft 220 kts 234°
2026-04-25 10:28 55.49831 13.00861 2968 ft 203 kts 266°
2026-04-25 10:28 55.49959 12.98449 2982 ft 196 kts 288°
2026-04-25 10:28 55.50488 12.96270 2979 ft 187 kts 301°
2026-04-25 10:28 55.51148 12.94378 2996 ft 176 kts 303°
2026-04-25 10:29 55.51797 12.92566 3005 ft 174 kts 303°
2026-04-25 10:29 55.52452 12.90798 2985 ft 172 kts 304°
2026-04-25 10:29 55.53076 12.89116 2973 ft 158 kts 304°
2026-04-25 10:29 55.53667 12.87508 2850 ft 154 kts 303°
2026-04-25 10:30 55.54250 12.85922 2633 ft 154 kts 303°
2026-04-25 10:30 55.54837 12.84346 2420 ft 154 kts 302°
2026-04-25 10:30 55.55419 12.82780 2207 ft 153 kts 302°
2026-04-25 10:30 55.56003 12.81205 1994 ft 153 kts 302°
2026-04-25 10:31 55.56578 12.79656 1772 ft 145 kts 301°
2026-04-25 10:31 55.57120 12.78194 1594 ft 140 kts 301°
2026-04-25 10:31 55.57646 12.76776 1406 ft 133 kts 301°
2026-04-25 10:31 55.58133 12.75464 1225 ft 122 kts 301°
2026-04-25 10:32 55.58578 12.74262 1053 ft 113 kts 301°
2026-04-25 10:32 55.59001 12.73121 897 ft 110 kts 301°
2026-04-25 10:32 55.59421 12.71982 730 ft 111 kts 301°
2026-04-25 10:32 55.59846 12.70835 591 ft 112 kts 301°
2026-04-25 10:33 55.60265 12.69707 425 ft 111 kts 301°
2026-04-25 10:33 55.60697 12.68563 312 ft 113 kts 301°
2026-04-25 10:33 55.61130 12.67383 150 ft 115 kts 302°
2026-04-25 10:33 55.61575 12.66185 32 ft 112 kts 307°
2026-04-25 10:34 55.61937 12.65211 29 ft 79 kts 303°
2026-04-25 10:34 55.62187 12.64537 30 ft 53 kts 303°
2026-04-25 10:34 55.62354 12.64087 27 ft 35 kts 303°
2026-04-25 10:34 55.62487 12.63806 29 ft 28 kts 330°
2026-04-25 10:35 55.62637 12.63803 30 ft 0 kts 28°
2026-04-25 10:36 55.62666 12.63831 30 ft 11 kts 29°
2026-04-25 10:36 55.62696 12.63928 30 ft 9 kts 102°
2026-04-25 10:36 55.62659 12.64050 30 ft 13 kts 121°
2026-04-25 10:36 55.62598 12.64205 30 ft 19 kts 125°
2026-04-25 10:37 55.62521 12.64415 30 ft 18 kts 123°
2026-04-25 10:37 55.62471 12.64552 30 ft 14 kts 123°
2026-04-25 10:37 55.62418 12.64698 30 ft 11 kts 116°
2026-04-25 10:37 55.62452 12.64775 30 ft 10 kts 12°
2026-04-25 10:38 55.62487 12.64775 30 ft 0 kts 358°
2026-04-25 10:38 55.62526 12.64772 30 ft 8 kts 357°
2026-04-25 10:38 55.62553 12.64811 30 ft 5 kts 60°
2026-04-25 10:38 55.62557 12.64856 30 ft 3 kts 89°
2026-04-25 10:39 55.62557 12.64867 30 ft 0 kts 89°
2026-04-25 10:39 55.62557 12.64871 30 ft 1 kts 89°
2026-04-25 10:39 55.62557 12.64888 30 ft 2 kts 89°
2026-04-25 10:39 55.62557 12.64892 30 ft 0 kts 89°
2026-04-25 10:40 55.62557 12.64898 30 ft 0 kts 89°